FW3681 Weather Reports


Display with metric or nautical units.
time (UTC)temp
F
wind
direction
speed
MPH
gust
MPH
rain 1hr
in
rain 24hr
in
rain mn
in
humidity
%
barometer
mb
20260509034704 64 358 0.0 3.0 0.02 0.26 0.26 94 1012.8
20260509034505 64 10 0.0 3.0 0.02 0.26 0.26 94 1012.9
20260509034402 64 344 2.0 3.0 0.03 0.26 0.26 94 1013.0
20260509034204 64 13 0.0 2.0 0.03 0.26 0.26 94 1013.0
20260509034103 64 58 0.0 2.0 0.03 0.26 0.26 94 1013.0
20260509034007 64 58 0.0 2.0 0.03 0.26 0.26 94 1013.0
20260509033902 64 45 2.0 3.0 0.03 0.26 0.26 94 1013.0
20260509033803 64 335 0.0 3.0 0.03 0.26 0.26 94 1013.0
20260509033704 64 104 0.0 3.0 0.03 0.26 0.26 94 1013.0
20260509033603 64 104 0.0 3.0 0.03 0.26 0.26 94 1013.0
20260509033505 64 58 0.0 3.0 0.03 0.26 0.26 94 1013.0
20260509033303 64 283 0.0 3.0 0.03 0.26 0.26 94 1013.0
20260509033203 64 321 0.0 3.0 0.03 0.26 0.26 94 1012.9
20260509033103 64 321 0.0 4.0 0.03 0.26 0.26 94 1012.8
20260509033008 64 205 0.0 4.0 0.03 0.26 0.26 94 1012.8
20260509032804 64 30 2.0 4.0 0.03 0.26 0.26 94 1012.8
20260509032603 64 66 1.0 5.0 0.03 0.26 0.26 94 1012.7
20260509032506 64 150 2.0 5.0 0.03 0.26 0.26 94 1012.7
20260509032403 64 171 0.0 5.0 0.03 0.26 0.26 94 1012.7
20260509032306 64 234 0.0 5.0 0.03 0.26 0.26 94 1012.7
20260509032203 64 297 0.0 5.0 0.03 0.26 0.26 94 1012.7
20260509032103 64 120 2.0 5.0 0.03 0.26 0.26 94 1012.4
20260509031804 64 157 2.0 4.0 0.03 0.26 0.26 94 1012.1
20260509031702 64 225 4.0 4.0 0.03 0.26 0.26 94 1011.7
20260509031604 64 141 4.0 5.0 0.03 0.26 0.26 94 1011.5
20260509031505 64 102 0.0 5.0 0.03 0.26 0.26 94 1011.5
20260509031404 64 285 2.0 5.0 0.03 0.26 0.26 94 1011.5
20260509031303 64 162 3.0 5.0 0.03 0.26 0.26 94 1011.4
20260509031203 64 281 0.0 6.0 0.03 0.26 0.26 94 1011.4
20260509031103 64 68 0.0 7.0 0.03 0.26 0.26 94 1011.6
20260509031006 64 131 3.0 8.0 0.03 0.26 0.26 93 1011.6
20260509030903 64 358 0.0 8.0 0.03 0.26 0.26 93 1011.4
20260509030803 64 113 0.0 8.0 0.03 0.26 0.26 94 1011.3
20260509030703 64 120 3.0 8.0 0.03 0.26 0.26 94 1011.2
20260509030603 64 234 1.0 8.0 0.03 0.26 0.26 94 1011.3
20260509030506 64 157 3.0 8.0 0.03 0.26 0.26 94 1011.3
20260509030404 64 153 3.0 8.0 0.03 0.26 0.26 94 1011.2
20260509030303 64 122 3.0 8.0 0.03 0.26 0.26 94 1011.2
20260509030203 64 134 5.0 8.0 0.03 0.26 0.26 94 1011.4
20260509030104 64 148 6.0 8.0 0.03 0.26 0.26 94 1011.8
20260509025903 65 146 5.0 8.0 0.03 0.26 0.26 93 1012.7
20260509025803 65 139 5.0 8.0 0.02 0.25 0.25 94 1012.9
20260509025703 65 111 4.0 8.0 0.02 0.25 0.25 94 1013.2
20260509025603 65 141 3.0 7.0 0.02 0.25 0.25 94 1013.5
20260509025505 65 143 4.0 5.0 0.02 0.25 0.25 94 1013.6
20260509025403 65 148 2.0 4.0 0.02 0.25 0.25 94 1013.8
20260509025306 65 66 3.0 4.0 0.02 0.25 0.25 94 1013.9
20260509025006 65 188 3.0 4.0 0.02 0.25 0.25 94 1014.1
20260509024903 65 179 3.0 3.0 0.02 0.25 0.25 94 1014.0
20260509024804 65 206 2.0 3.0 0.01 0.24 0.24 94 1013.9
20260509024704 65 184 0.0 3.0 0.01 0.24 0.24 94 1013.9
20260509024506 65 224 0.0 3.0 0.01 0.24 0.24 94 1013.8
20260509024403 65 162 0.0 5.0 0.00 0.23 0.23 94 1013.9
20260509024303 65 176 0.0 5.0 0.00 0.23 0.23 94 1014.0
20260509024204 65 244 0.0 5.0 0.00 0.23 0.23 93 1014.0
20260509024102 65 244 0.0 5.0 0.00 0.23 0.23 94 1014.1
20260509024005 65 245 0.0 5.0 0.00 0.23 0.23 94 1014.1
20260509023903 65 211 0.0 5.0 0.00 0.23 0.23 94 1014.1
20260509023702 65 302 0.0 5.0 0.00 0.23 0.23 93 1014.0
20260509023603 65 293 2.0 5.0 0.00 0.23 0.23 93 1014.0
20260509023505 65 223 0.0 4.0 0.00 0.23 0.23 93 1014.0
20260509023403 65 281 0.0 4.0 0.00 0.23 0.23 93 1013.8
20260509023203 65 306 1.0 4.0 0.00 0.23 0.23 93 1013.6
20260509023008 65 347 1.0 4.0 0.01 0.23 0.23 93 1013.6
20260509022903 65 304 2.0 4.0 0.01 0.23 0.23 93 1013.5
20260509022704 65 1 2.0 3.0 0.01 0.23 0.23 93 1013.3
20260509022603 65 297 0.0 3.0 0.01 0.23 0.23 93 1013.3
20260509022403 65 201 0.0 3.0 0.01 0.23 0.23 93 1013.2
20260509022306 65 293 0.0 3.0 0.01 0.23 0.23 93 1013.2
20260509022203 65 293 0.0 3.0 0.01 0.23 0.23 93 1013.2
20260509022104 65 274 1.0 3.0 0.01 0.23 0.23 93 1013.1
20260509022006 65 223 0.0 3.0 0.01 0.23 0.23 93 1013.1
20260509021803 65 167 0.0 3.0 0.01 0.23 0.23 93 1013.0
20260509021704 65 211 0.0 3.0 0.01 0.23 0.23 93 1012.8
20260509021603 65 300 2.0 5.0 0.01 0.23 0.23 93 1012.9
20260509021505 65 224 0.0 5.0 0.01 0.23 0.23 93 1012.9
20260509021303 65 44 0.0 5.0 0.01 0.23 0.23 93 1012.8
20260509021103 65 155 0.0 5.0 0.01 0.23 0.23 93 1012.9
20260509021007 64 92 0.0 5.0 0.01 0.23 0.23 93 1012.8
20260509020902 65 141 2.0 5.0 0.01 0.23 0.23 93 1013.0
20260509020803 65 200 0.0 5.0 0.01 0.23 0.23 93 1013.0
20260509020703 65 213 4.0 5.0 0.01 0.23 0.23 93 1012.9
20260509020603 65 214 3.0 5.0 0.01 0.23 0.23 93 1012.6
20260509020505 65 207 0.0 5.0 0.01 0.23 0.23 93 1012.6
20260509020303 65 146 2.0 7.0 0.01 0.23 0.23 93 1012.5
20260509020203 65 232 0.0 7.0 0.01 0.23 0.23 93 1012.6
20260509020008 65 284 0.0 7.0 0.01 0.23 0.23 93 1012.6
20260509015903 65 325 0.0 7.0 0.01 0.23 0.23 93 1012.6
20260509015703 65 139 1.0 7.0 0.01 0.23 0.23 93 1012.5
20260509015603 65 250 0.0 7.0 0.01 0.23 0.23 93 1012.6
20260509015403 65 151 4.0 6.0 0.01 0.23 0.23 93 1012.6
20260509015306 65 164 3.0 6.0 0.01 0.23 0.23 93 1012.6
20260509015204 65 164 5.0 6.0 0.01 0.23 0.23 93 1012.7
20260509015103 65 195 2.0 6.0 0.01 0.23 0.23 93 1012.6
20260509015006 65 134 3.0 6.0 0.01 0.23 0.23 93 1012.7
20260509014803 65 165 3.0 6.0 0.01 0.23 0.23 93 1012.7
20260509014704 65 171 2.0 6.0 0.01 0.23 0.23 93 1012.7
20260509014603 65 148 4.0 6.0 0.01 0.23 0.23 93 1012.6
20260509014506 65 127 3.0 6.0 0.01 0.23 0.23 93 1012.7
20260509014403 65 153 3.0 6.0 0.01 0.23 0.23 93 1012.7
20260509014303 65 162 4.0 6.0 0.01 0.23 0.23 93 1012.8
20260509014204 65 150 3.0 6.0 0.01 0.23 0.23 93 1013.0
20260509014102 65 139 3.0 6.0 0.01 0.23 0.23 93 1012.9
20260509013903 65 151 4.0 7.0 0.01 0.23 0.23 93 1012.9
20260509013804 65 120 3.0 7.0 0.01 0.23 0.23 93 1012.9
20260509013703 65 201 3.0 7.0 0.01 0.23 0.23 93 1012.8
20260509013603 65 160 4.0 7.0 0.01 0.23 0.23 93 1012.7
20260509013506 65 172 1.0 7.0 0.01 0.23 0.23 93 1012.7
20260509013403 65 160 0.0 7.0 0.01 0.23 0.23 93 1012.6
20260509013304 65 155 3.0 7.0 0.01 0.23 0.23 93 1012.7
20260509013203 65 150 3.0 7.0 0.01 0.23 0.23 93 1012.8
20260509013103 65 148 5.0 7.0 0.01 0.23 0.23 93 1012.8
20260509013006 65 148 4.0 6.0 0.00 0.22 0.22 93 1013.0
20260509012904 65 157 3.0 6.0 0.00 0.22 0.22 93 1013.0
20260509012803 65 153 5.0 6.0 0.00 0.22 0.22 93 1012.9
20260509012704 65 155 2.0 6.0 0.00 0.22 0.22 93 1012.9
20260509012604 65 164 3.0 6.0 0.00 0.22 0.22 93 1013.0
20260509012505 65 360 3.0 6.0 0.00 0.22 0.22 93 1013.0
20260509012404 65 155 4.0 6.0 0.00 0.22 0.22 93 1013.2
20260509012306 65 181 4.0 5.0 0.00 0.22 0.22 93 1013.2
20260509012102 65 176 5.0 5.0 0.00 0.22 0.22 93 1013.2
20260509012006 65 143 3.0 5.0 0.00 0.22 0.22 93 1013.3
20260509011904 65 148 4.0 5.0 0.00 0.22 0.22 93 1013.4
20260509011803 65 165 4.0 5.0 0.00 0.22 0.22 93 1013.5
20260509011703 65 115 2.0 5.0 0.00 0.22 0.22 93 1013.5
20260509011603 65 136 2.0 4.0 0.00 0.22 0.22 93 1013.6
20260509011506 65 150 3.0 4.0 0.00 0.22 0.22 93 1013.6
20260509011303 65 155 0.0 4.0 0.00 0.22 0.22 93 1013.6
20260509011102 65 150 1.0 4.0 0.00 0.22 0.22 93 1013.8
20260509010803 65 122 0.0 4.0 0.00 0.22 0.22 93 1013.5
20260509010703 65 146 2.0 4.0 0.00 0.22 0.22 93 1013.6
20260509010603 65 146 0.0 4.0 0.00 0.22 0.22 93 1013.6
20260509010505 65 121 1.0 4.0 0.00 0.22 0.22 93 1013.5
20260509010404 65 164 2.0 4.0 0.00 0.22 0.22 93 1013.6
20260509010303 65 146 0.0 4.0 0.00 0.22 0.22 93 1013.6
20260509010104 65 164 2.0 4.0 0.00 0.22 0.22 93 1013.5
20260509010008 65 160 2.0 4.0 0.00 0.22 0.22 93 1013.5
20260509005902 65 38 1.0 4.0 0.00 0.22 0.22 93 1013.5
20260509005703 65 139 3.0 3.0 0.00 0.22 0.22 93 1013.5
20260509005603 65 158 2.0 3.0 0.00 0.22 0.22 93 1013.6
20260509005506 65 164 2.0 3.0 0.00 0.22 0.22 93 1013.6
20260509005402 65 157 2.0 3.0 0.00 0.22 0.22 93 1013.6
20260509005203 65 216 0.0 3.0 0.00 0.22 0.22 93 1013.7
20260509005103 65 130 0.0 3.0 0.00 0.22 0.22 93 1013.6
20260509005006 65 262 0.0 3.0 0.00 0.22 0.22 93 1013.7
20260509004903 65 150 0.0 3.0 0.00 0.22 0.22 93 1013.7
20260509004803 65 158 0.0 3.0 0.00 0.22 0.22 93 1013.7
20260509004703 65 148 0.0 3.0 0.00 0.22 0.22 93 1013.7
20260509004603 65 148 1.0 3.0 0.00 0.22 0.22 93 1013.8
20260509004506 65 139 3.0 3.0 0.00 0.22 0.22 93 1013.9
20260509004403 65 141 0.0 3.0 0.00 0.22 0.22 93 1014.0
20260509004203 65 153 0.0 3.0 0.00 0.22 0.22 93 1013.9
20260509004103 65 162 0.0 3.0 0.00 0.22 0.22 93 1014.0
20260509004007 66 150 0.0 3.0 0.00 0.22 0.22 93 1014.0
20260509003903 66 153 2.0 2.0 0.00 0.22 0.22 93 1014.0
20260509003803 65 132 2.0 2.0 0.00 0.22 0.22 93 1014.0
20260509003702 65 160 1.0 2.0 0.00 0.22 0.22 93 1014.0
20260509003604 65 225 0.0 2.0 0.00 0.22 0.22 93 1014.1
20260509003505 65 153 0.0 3.0 0.00 0.22 0.22 93 1014.1
20260509003304 65 186 0.0 3.0 0.00 0.22 0.22 93 1014.0
20260509003203 66 186 0.0 3.0 0.00 0.22 0.22 93 1014.0
20260509003103 66 127 0.0 3.0 0.00 0.22 0.22 93 1014.0
20260509003007 66 194 0.0 3.0 0.00 0.22 0.22 93 1014.0
20260509002903 66 183 0.0 3.0 0.00 0.22 0.22 93 1014.0
20260509002804 66 183 0.0 3.0 0.00 0.22 0.22 93 1014.1
20260509002703 66 131 0.0 3.0 0.00 0.22 0.22 93 1014.1
20260509002604 66 130 1.0 3.0 0.00 0.22 0.22 93 1014.0
20260509002404 66 153 2.0 3.0 0.00 0.22 0.22 93 1014.2
20260509002306 66 143 0.0 1.0 0.00 0.22 0.22 93 1014.2
20260509002203 66 146 0.0 1.0 0.00 0.22 0.22 93 1014.2
20260509002103 66 192 0.0 1.0 0.00 0.22 0.22 93 1014.3
20260509002006 66 202 0.0 0.0 0.00 0.22 0.22 93 1014.3
20260509001903 65 130 0.0 3.0 0.00 0.22 0.22 92 1014.3
20260509001703 65 130 0.0 3.0 0.00 0.22 0.22 92 1014.3
20260509001602 65 130 0.0 3.0 0.00 0.22 0.22 92 1014.3
20260509001403 65 130 0.0 3.0 0.00 0.22 0.22 92 1014.4
20260509001303 65 130 0.0 3.0 0.00 0.22 0.22 92 1014.4
20260509001203 65 130 0.0 3.0 0.00 0.22 0.22 92 1014.3
20260509001007 66 117 0.0 3.0 0.00 0.22 0.22 92 1014.4
20260509000903 66 117 0.0 3.0 0.00 0.22 0.22 92 1014.4
20260509000703 66 118 0.0 3.0 0.00 0.22 0.22 92 1014.2
20260509000603 66 118 0.0 3.0 0.00 0.22 0.22 92 1014.3
20260509000505 66 116 0.0 3.0 0.00 0.22 0.22 92 1014.3
20260509000403 66 116 0.0 3.0 0.00 0.22 0.22 92 1014.4
20260509000303 66 105 0.0 3.0 0.00 0.22 0.22 92 1014.4
20260509000204 66 141 0.0 3.0 0.00 0.22 0.22 92 1014.4
20260509000008 66 195 0.0 3.0 0.00 0.22 0.22 92 1014.5
20260508235902 66 151 0.0 3.0 0.00 0.22 0.22 92 1014.5
20260508235803 66 157 0.0 3.0 0.00 0.22 0.22 92 1014.5
20260508235703 66 157 0.0 3.0 0.00 0.22 0.22 92 1014.4
20260508235603 66 142 2.0 3.0 0.00 0.22 0.22 92 1014.5
20260508235506 66 146 1.0 3.0 0.00 0.22 0.22 92 1014.5
20260508235404 66 141 2.0 3.0 0.00 0.22 0.22 92 1014.6
20260508235306 66 150 2.0 3.0 0.00 0.22 0.22 92 1014.6
20260508235103 66 150 2.0 3.0 0.00 0.22 0.22 92 1014.7
20260508235008 66 141 0.0 3.0 0.00 0.22 0.22 92 1014.7
20260508234903 66 155 0.0 0.0 0.00 0.22 0.22 92 1014.7
20260508234803 66 217 0.0 0.0 0.00 0.22 0.22 92 1014.7
20260508234703 66 231 0.0 0.0 0.00 0.22 0.22 92 1014.7
20260508234604 66 231 0.0 0.0 0.00 0.22 0.22 92 1014.7
20260508234505 66 231 0.0 0.0 0.00 0.22 0.22 92 1014.8
20260508234402 66 231 0.0 0.0 0.00 0.22 0.22 92 1014.8
20260508234303 66 231 0.0 1.0 0.00 0.22 0.22 92 1014.8
20260508234204 66 231 0.0 1.0 0.00 0.22 0.22 92 1014.8
20260508234104 66 231 0.0 1.0 0.00 0.22 0.22 92 1014.9
20260508234008 66 231 0.0 1.0 0.00 0.22 0.22 92 1015.0
20260508233903 66 231 0.0 1.0 0.00 0.22 0.22 92 1015.0
20260508233803 66 231 0.0 2.0 0.00 0.22 0.22 92 1015.1
20260508233702 66 231 0.0 2.0 0.00 0.22 0.22 92 1015.2
20260508233603 66 231 0.0 2.0 0.00 0.22 0.22 92 1015.2
20260508233403 66 231 0.0 2.0 0.00 0.22 0.22 92 1015.0
20260508233303 66 231 0.0 2.0 0.00 0.22 0.22 92 1015.0
20260508233203 66 231 0.0 2.0 0.00 0.22 0.22 92 1015.0
20260508233103 66 323 0.0 2.0 0.00 0.22 0.22 92 1015.1
20260508233007 66 323 0.0 3.0 0.00 0.22 0.22 92 1015.1
20260508232902 66 334 0.0 3.0 0.00 0.22 0.22 92 1015.3
20260508232803 66 260 0.0 3.0 0.00 0.22 0.22 92 1015.3
20260508232703 66 238 0.0 3.0 0.00 0.22 0.22 92 1015.3
20260508232603 66 245 0.0 3.0 0.00 0.22 0.22 92 1015.3
20260508232506 66 326 0.0 3.0 0.00 0.22 0.22 92 1015.3
20260508232403 66 326 0.0 3.0 0.00 0.22 0.22 92 1015.3
20260508232306 66 326 0.0 3.0 0.00 0.22 0.22 92 1015.4
20260508232203 66 349 0.0 3.0 0.00 0.22 0.22 92 1015.4
20260508232103 66 1 2.0 3.0 0.00 0.22 0.22 92 1015.6
20260508232006 66 233 0.0 3.0 0.00 0.22 0.22 92 1015.6
20260508231903 66 251 0.0 3.0 0.00 0.22 0.22 92 1015.6
20260508231803 66 240 2.0 3.0 0.00 0.22 0.22 92 1015.5
20260508231702 66 240 0.0 2.0 0.00 0.22 0.22 92 1015.5
20260508231603 66 317 0.0 2.0 0.00 0.22 0.22 92 1015.4
20260508231506 66 317 0.0 2.0 0.00 0.22 0.22 92 1015.5
20260508231404 66 311 0.0 2.0 0.00 0.22 0.22 92 1015.5
20260508231302 66 311 0.0 2.0 0.00 0.22 0.22 92 1015.5
20260508231203 66 301 0.0 2.0 0.00 0.22 0.22 92 1015.5
20260508231104 66 302 0.0 2.0 0.00 0.22 0.22 92 1015.5
20260508231006 66 231 0.0 2.0 0.00 0.22 0.22 92 1015.5
20260508230903 66 285 0.0 3.0 0.00 0.22 0.22 92 1015.5
20260508230803 66 285 0.0 3.0 0.00 0.22 0.22 92 1015.5
20260508230702 66 285 0.0 3.0 0.00 0.22 0.22 92 1015.6
20260508230604 66 285 0.0 3.0 0.00 0.22 0.22 92 1015.6
20260508230506 66 240 0.0 3.0 0.00 0.22 0.22 92 1015.6
20260508230404 66 246 0.0 3.0 0.00 0.22 0.22 92 1015.5
20260508230303 66 312 0.0 3.0 0.00 0.22 0.22 92 1015.5
20260508230203 66 312 0.0 3.0 0.00 0.22 0.22 92 1015.5
20260508230103 66 275 0.0 3.0 0.00 0.22 0.22 92 1015.5
20260508230008 66 250 0.0 2.0 0.00 0.22 0.22 92 1015.5
20260508225904 66 236 2.0 2.0 0.00 0.22 0.22 92 1015.5
20260508225802 66 304 0.0 2.0 0.00 0.22 0.22 92 1015.3
20260508225703 66 304 0.0 2.0 0.00 0.22 0.22 92 1015.4
20260508225604 66 304 0.0 3.0 0.00 0.22 0.22 92 1015.3
20260508225506 66 278 0.0 3.0 0.00 0.22 0.22 92 1015.4
20260508225403 66 283 2.0 3.0 0.00 0.22 0.22 92 1015.3
20260508225203 66 294 0.0 3.0 0.00 0.22 0.22 92 1015.2
20260508225007 66 281 0.0 3.0 0.00 0.22 0.22 92 1015.2
20260508224903 65 281 0.0 3.0 0.00 0.22 0.22 92 1015.0
20260508224804 66 285 0.0 3.0 0.00 0.22 0.22 91 1015.0
20260508224603 66 319 0.0 3.0 0.00 0.22 0.22 92 1015.0
20260508224505 66 302 1.0 3.0 0.00 0.22 0.22 92 1015.0
20260508224304 65 256 0.0 2.0 0.00 0.22 0.22 92 1014.8
20260508224203 65 257 0.0 1.0 0.00 0.22 0.22 91 1014.7
20260508224104 65 257 0.0 1.0 0.00 0.22 0.22 91 1014.7
20260508224007 65 257 0.0 3.0 0.00 0.22 0.22 91 1014.6
20260508223903 65 274 0.0 3.0 0.00 0.22 0.22 91 1014.6
20260508223803 65 264 0.0 3.0 0.00 0.22 0.22 91 1014.5
20260508223702 65 270 0.0 3.0 0.00 0.22 0.22 91 1014.5
20260508223602 65 271 0.0 3.0 0.00 0.22 0.22 91 1014.4
20260508223403 66 271 0.0 3.0 0.01 0.22 0.22 91 1014.5
20260508223304 66 271 0.0 3.0 0.01 0.22 0.22 91 1014.4
20260508223202 66 309 0.0 3.0 0.01 0.22 0.22 91 1014.4
20260508223103 66 271 2.0 3.0 0.01 0.22 0.22 91 1014.3
20260508223007 66 286 0.0 3.0 0.01 0.22 0.22 91 1014.3
20260508222904 66 249 0.0 3.0 0.02 0.22 0.22 91 1014.3
20260508222703 66 262 1.0 3.0 0.02 0.22 0.22 91 1014.1
20260508222603 66 237 0.0 3.0 0.03 0.22 0.22 91 1014.0
20260508222506 66 237 0.0 3.0 0.03 0.22 0.22 91 1014.0
20260508222402 66 209 0.0 3.0 0.03 0.22 0.22 91 1014.0
20260508222306 66 137 1.0 3.0 0.04 0.22 0.22 91 1014.0
20260508222203 66 146 2.0 3.0 0.04 0.22 0.22 91 1014.1
20260508222007 66 224 0.0 2.0 0.04 0.22 0.22 91 1014.0
20260508221904 66 222 0.0 2.0 0.05 0.22 0.22 92 1014.0
20260508221703 66 251 0.0 2.0 0.05 0.22 0.22 91 1013.9
20260508221603 66 251 0.0 2.0 0.06 0.22 0.22 91 1013.9
20260508221505 66 251 0.0 2.0 0.06 0.22 0.22 91 1013.9
20260508221403 66 251 0.0 2.0 0.06 0.22 0.22 91 1014.0
20260508221303 66 251 0.0 2.0 0.06 0.22 0.22 91 1014.0
20260508221205 66 251 0.0 2.0 0.06 0.22 0.22 91 1014.0
20260508221103 66 251 0.0 2.0 0.07 0.22 0.22 91 1014.0
20260508221007 66 258 0.0 3.0 0.07 0.22 0.22 91 1014.0
20260508220903 66 304 1.0 3.0 0.08 0.22 0.22 91 1014.0
20260508220803 66 50 0.0 3.0 0.08 0.22 0.22 91 1014.0
20260508220703 66 241 0.0 3.0 0.08 0.22 0.22 91 1014.0
20260508220506 66 241 0.0 3.0 0.08 0.22 0.22 91 1014.1
20260508220404 66 228 0.0 3.0 0.08 0.22 0.22 91 1014.1
20260508220302 66 228 0.0 3.0 0.09 0.22 0.22 91 1014.2
20260508220203 66 228 1.0 3.0 0.09 0.22 0.22 91 1014.1
20260508220009 66 241 0.0 2.0 0.09 0.22 0.22 91 1014.0
20260508215901 66 295 0.0 2.0 0.10 0.22 0.22 91 1014.0
20260508215802 66 294 0.0 2.0 0.10 0.22 0.22 91 1014.0
20260508215601 66 294 0.0 2.0 0.10 0.22 0.22 91 1013.8
20260508215402 66 321 0.0 3.0 0.11 0.22 0.22 91 1013.8
20260508215306 66 321 0.0 3.0 0.11 0.22 0.22 91 1013.7
20260508214903 66 50 0.0 4.0 0.12 0.22 0.22 91 1013.5
20260508214802 66 316 0.0 4.0 0.12 0.22 0.22 91 1013.6
20260508214702 66 12 0.0 5.0 0.12 0.22 0.22 91 1013.5
20260508214602 66 326 0.0 5.0 0.12 0.22 0.22 91 1013.3
20260508214505 66 219 0.0 5.0 0.12 0.22 0.22 91 1013.3
20260508214402 66 219 0.0 5.0 0.13 0.22 0.22 91 1013.2
20260508214302 66 61 0.0 5.0 0.13 0.22 0.22 91 1013.1
20260508214205 66 153 0.0 5.0 0.13 0.22 0.22 90 1013.1
20260508214102 66 122 1.0 5.0 0.13 0.22 0.22 90 1013.1
20260508214006 66 108 2.0 5.0 0.13 0.22 0.22 90 1013.1
20260508213903 66 139 0.0 5.0 0.14 0.22 0.22 90 1013.2
20260508213802 66 129 2.0 5.0 0.14 0.22 0.22 90 1013.2
20260508213702 66 66 3.0 5.0 0.14 0.22 0.22 90 1013.2
20260508213604 66 135 5.0 5.0 0.14 0.22 0.22 90 1013.2
20260508213505 66 139 1.0 4.0 0.13 0.21 0.21 90 1013.2
20260508213402 66 94 4.0 4.0 0.13 0.21 0.21 90 1013.4
20260508213302 66 96 3.0 3.0 0.14 0.21 0.21 90 1013.5
20260508213202 66 115 0.0 3.0 0.14 0.21 0.21 90 1013.6
20260508213101 66 143 0.0 3.0 0.14 0.21 0.21 90 1013.8
20260508213005 66 120 0.0 3.0 0.13 0.20 0.20 90 1013.9
20260508212902 66 150 1.0 3.0 0.14 0.20 0.20 90 1013.9
20260508212801 66 144 2.0 3.0 0.14 0.20 0.20 90 1013.9
20260508212702 66 153 0.0 3.0 0.13 0.19 0.19 90 1014.1
20260508212601 66 141 2.0 3.0 0.13 0.19 0.19 90 1014.0
20260508212505 66 134 3.0 3.0 0.13 0.19 0.19 90 1014.0
20260508212402 66 212 0.0 0.0 0.13 0.19 0.19 90 1014.1
20260508212202 66 212 0.0 1.0 0.13 0.18 0.18 90 1014.2
20260508212102 66 212 0.0 1.0 0.13 0.18 0.18 89 1014.2
20260508212007 66 212 0.0 1.0 0.12 0.17 0.17 89 1014.2
20260508211702 66 212 0.0 2.0 0.12 0.17 0.17 89 1014.6
20260508211602 66 208 0.0 2.0 0.11 0.16 0.16 89 1014.6
20260508211505 66 225 0.0 3.0 0.12 0.16 0.16 89 1014.5
20260508211402 66 225 0.0 3.0 0.12 0.16 0.16 89 1014.4
20260508211301 66 215 0.0 3.0 0.12 0.16 0.16 89 1014.3
20260508211203 66 214 0.0 3.0 0.11 0.15 0.15 89 1014.2
20260508211102 66 302 0.0 3.0 0.11 0.15 0.15 89 1014.1
20260508211006 66 253 0.0 3.0 0.11 0.15 0.15 89 1014.1
20260508210901 66 260 1.0 3.0 0.10 0.14 0.14 89 1013.9
20260508210801 66 234 1.0 3.0 0.11 0.14 0.14 89 1013.8
20260508210702 66 206 0.0 3.0 0.11 0.14 0.14 89 1013.7
20260508210505 66 204 1.0 3.0 0.11 0.14 0.14 89 1013.5
20260508210302 66 186 0.0 3.0 0.10 0.13 0.13 88 1013.5
20260508210203 66 216 1.0 3.0 0.10 0.13 0.13 88 1013.4
20260508210008 66 148 0.0 3.0 0.10 0.13 0.13 88 1013.4
20260508205903 66 148 0.0 3.0 0.10 0.12 0.12 88 1013.5
20260508205802 66 160 0.0 3.0 0.10 0.12 0.12 88 1013.5
20260508205604 66 132 0.0 3.0 0.10 0.12 0.12 88 1013.6
20260508205403 66 162 0.0 2.0 0.09 0.11 0.11 88 1013.6
20260508205306 67 132 0.0 2.0 0.10 0.11 0.11 88 1013.6
20260508205203 67 184 0.0 3.0 0.10 0.11 0.11 88 1013.7
20260508205006 67 252 1.0 3.0 0.10 0.11 0.11 88 1013.6
20260508204703 67 245 0.0 3.0 0.09 0.10 0.10 88 1013.7
20260508204602 67 251 0.0 3.0 0.09 0.10 0.10 88 1013.8
20260508204506 67 268 2.0 3.0 0.09 0.10 0.10 88 1013.7
20260508204303 67 245 0.0 3.0 0.09 0.09 0.09 87 1013.8
20260508204204 67 241 0.0 3.0 0.09 0.09 0.09 87 1013.7
20260508204105 67 228 0.0 3.0 0.09 0.09 0.09 87 1013.7
20260508203904 67 148 1.0 3.0 0.08 0.08 0.08 87 1013.7
20260508203803 67 129 1.0 2.0 0.08 0.08 0.08 87 1013.6
20260508203703 67 324 0.0 2.0 0.08 0.08 0.08 87 1013.5
20260508203602 67 160 0.0 2.0 0.08 0.08 0.08 87 1013.6
20260508203506 67 165 0.0 2.0 0.08 0.08 0.08 87 1013.6
20260508203403 67 158 1.0 2.0 0.08 0.08 0.08 87 1013.4
20260508203203 67 328 0.0 3.0 0.07 0.07 0.07 87 1013.5
20260508203102 67 328 1.0 3.0 0.07 0.07 0.07 87 1013.4
20260508203008 67 221 0.0 3.0 0.07 0.07 0.07 87 1013.4
20260508202903 67 283 0.0 3.0 0.06 0.06 0.06 87 1013.5
20260508202803 68 284 0.0 3.0 0.06 0.06 0.06 87 1013.5
20260508202703 68 319 0.0 3.0 0.06 0.06 0.06 86 1013.4
20260508202603 68 286 0.0 3.0 0.06 0.06 0.06 86 1013.4
20260508202505 68 283 0.0 3.0 0.06 0.06 0.06 86 1013.4
20260508202403 68 309 0.0 3.0 0.06 0.06 0.06 86 1013.4
20260508202203 68 295 0.0 1.0 0.05 0.05 0.05 86 1013.3
20260508202006 68 249 0.0 0.0 0.05 0.05 0.05 86 1013.4
20260508201902 68 249 0.0 0.0 0.05 0.05 0.05 86 1013.4
20260508201303 68 249 0.0 2.0 0.04 0.04 0.04 85 1013.5
20260508201204 68 259 0.0 2.0 0.04 0.04 0.04 85 1013.6
20260508201104 68 259 0.0 2.0 0.04 0.04 0.04 85 1013.7
20260508200506 69 39 0.0 2.0 0.03 0.03 0.03 84 1013.7
20260508200403 69 39 0.0 2.0 0.03 0.03 0.03 84 1013.8
20260508200303 69 281 0.0 2.0 0.03 0.03 0.03 84 1013.9
20260508200104 69 281 0.0 3.0 0.03 0.03 0.03 83 1013.9
20260508200007 69 273 0.0 3.0 0.02 0.02 0.02 83 1013.9
20260508195903 69 302 0.0 3.0 0.02 0.13 0.02 82 1014.0
20260508195803 69 247 0.0 3.0 0.02 0.13 0.02 82 1014.0
20260508195703 69 247 0.0 3.0 0.02 0.13 0.02 82 1014.1
20260508195603 69 295 0.0 3.0 0.02 0.13 0.02 82 1014.1
20260508195505 69 333 0.0 3.0 0.02 0.13 0.02 82 1014.0
20260508195403 69 333 0.0 3.0 0.02 0.13 0.02 81 1014.0
20260508195305 70 333 0.0 3.0 0.01 0.12 0.01 81 1014.0
20260508195203 70 236 0.0 2.0 0.01 0.12 0.01 81 1014.0
20260508195103 70 288 0.0 2.0 0.01 0.12 0.01 80 1014.0
20260508194803 71 263 0.0 2.0 0.01 0.12 0.01 80 1014.0
20260508194506 71 330 0.0 3.0 0.00 0.11 0.00 78 1013.9
20260508194403 71 319 0.0 4.0 0.00 0.11 0.00 78 1013.9
20260508194303 71 319 0.0 4.0 0.00 0.11 0.00 77 1013.9
20260508194203 71 236 0.0 4.0 0.00 0.11 0.00 76 1013.9
20260508194103 71 236 0.0 4.0 0.00 0.11 0.00 76 1013.9
20260508194007 71 309 0.0 4.0 0.00 0.11 0.00 76 1013.9
20260508193902 72 335 0.0 4.0 0.00 0.11 0.00 75 1013.9
20260508193703 72 319 0.0 4.0 0.00 0.11 0.00 75 1013.9
20260508193604 72 328 0.0 4.0 0.00 0.11 0.00 75 1013.9
20260508193403 72 351 0.0 3.0 0.00 0.11 0.00 75 1013.8
20260508193203 72 360 1.0 3.0 0.00 0.11 0.00 74 1013.9
20260508193103 72 337 0.0 3.0 0.00 0.11 0.00 74 1013.9
20260508193007 72 328 1.0 3.0 0.00 0.11 0.00 73 1013.9
20260508192904 72 338 0.0 5.0 0.00 0.11 0.00 73 1013.9
20260508192704 73 329 0.0 5.0 0.00 0.11 0.00 72 1013.9
20260508192604 73 342 2.0 5.0 0.00 0.11 0.00 72 1013.9
20260508192505 73 5 2.0 5.0 0.00 0.11 0.00 73 1013.9
20260508192403 73 359 2.0 5.0 0.00 0.11 0.00 71 1013.9
20260508192306 73 331 0.0 5.0 0.00 0.11 0.00 71 1013.9
20260508192103 73 315 0.0 5.0 0.00 0.11 0.00 70 1013.9
20260508192005 73 333 3.0 3.0 0.00 0.11 0.00 70 1013.9
20260508191802 74 330 1.0 4.0 0.00 0.11 0.00 70 1013.8
20260508191704 74 351 3.0 4.0 0.00 0.11 0.00 70 1013.8
20260508191603 74 349 0.0 4.0 0.00 0.11 0.00 69 1013.8
20260508191506 74 25 1.0 4.0 0.00 0.11 0.00 69 1013.8
20260508191403 74 143 0.0 4.0 0.00 0.11 0.00 69 1013.8
20260508191302 74 342 2.0 4.0 0.00 0.11 0.00 69 1013.8
20260508191203 74 347 2.0 4.0 0.00 0.11 0.00 68 1013.8
20260508191104 74 323 2.0 4.0 0.00 0.11 0.00 68 1013.8
20260508190903 74 330 2.0 4.0 0.00 0.11 0.00 68 1013.9
20260508190702 74 312 0.0 5.0 0.00 0.11 0.00 68 1013.9
20260508190604 74 278 0.0 5.0 0.00 0.11 0.00 69 1013.9
20260508190505 74 354 0.0 5.0 0.00 0.11 0.00 68 1013.8
20260508190403 74 328 2.0 5.0 0.00 0.11 0.00 68 1013.9
20260508190303 74 328 2.0 5.0 0.00 0.11 0.00 68 1013.9
20260508190007 74 328 3.0 5.0 0.00 0.11 0.00 68 1014.0
20260508185903 74 317 3.0 4.0 0.00 0.11 0.00 67 1013.9
20260508185802 74 302 3.0 3.0 0.00 0.11 0.00 67 1013.9
20260508185701 74 304 2.0 3.0 0.00 0.11 0.00 66 1013.9
20260508185602 75 293 0.0 3.0 0.00 0.11 0.00 66 1013.9
20260508185505 75 163 0.0 3.0 0.00 0.11 0.00 67 1013.9
20260508185401 75 331 2.0 3.0 0.00 0.11 0.00 67 1013.8
20260508185306 75 324 2.0 3.0 0.00 0.11 0.00 67 1013.9
20260508185104 75 307 0.0 3.0 0.00 0.11 0.00 67 1013.9
20260508184902 75 293 2.0 4.0 0.00 0.11 0.00 67 1014.0
20260508184702 75 167 0.0 4.0 0.00 0.11 0.00 66 1014.0
20260508184602 75 221 0.0 4.0 0.00 0.11 0.00 66 1014.0
20260508184505 75 295 0.0 4.0 0.00 0.11 0.00 66 1014.0
20260508184403 75 314 0.0 4.0 0.00 0.11 0.00 66 1014.0
20260508184301 75 319 2.0 4.0 0.00 0.11 0.00 67 1013.9
20260508184203 75 258 2.0 4.0 0.00 0.11 0.00 66 1013.9
20260508184103 75 110 0.0 3.0 0.00 0.11 0.00 66 1013.9
20260508184006 75 139 0.0 3.0 0.00 0.11 0.00 65 1013.8
20260508183901 75 146 0.0 3.0 0.00 0.11 0.00 65 1013.9
20260508183801 75 20 1.0 4.0 0.00 0.11 0.00 66 1013.9
20260508183702 75 300 2.0 5.0 0.00 0.11 0.00 65 1013.8
20260508183601 76 276 3.0 5.0 0.00 0.11 0.00 66 1013.8
20260508183504 76 280 0.0 5.0 0.00 0.11 0.00 65 1013.8
20260508183403 76 30 0.0 5.0 0.00 0.11 0.00 65 1013.9
20260508183302 76 317 0.0 5.0 0.00 0.11 0.00 66 1013.9
20260508183007 76 295 2.0 5.0 0.00 0.11 0.00 64 1014.0
20260508182902 76 322 3.0 5.0 0.00 0.11 0.00 65 1014.0
20260508182801 76 329 3.0 5.0 0.00 0.11 0.00 65 1014.0
20260508182603 76 156 2.0 5.0 0.00 0.11 0.00 64 1013.9
20260508182505 76 333 1.0 5.0 0.00 0.11 0.00 65 1013.9
20260508182401 76 352 2.0 5.0 0.00 0.11 0.00 67 1013.9
20260508182306 76 321 3.0 5.0 0.00 0.11 0.00 67 1013.9
20260508182202 75 316 2.0 5.0 0.00 0.11 0.00 66 1013.9
20260508182103 75 297 0.0 5.0 0.00 0.11 0.00 66 1013.9
20260508182005 75 331 3.0 5.0 0.00 0.11 0.00 66 1013.9
20260508181902 75 304 2.0 5.0 0.00 0.11 0.00 66 1013.9
20260508181803 75 321 3.0 5.0 0.00 0.11 0.00 67 1013.9
20260508181702 75 4 2.0 4.0 0.00 0.11 0.00 67 1013.9
20260508181506 75 249 1.0 4.0 0.00 0.11 0.00 66 1013.9
20260508181401 75 272 2.0 4.0 0.00 0.11 0.00 67 1013.9
20260508181303 75 307 2.0 4.0 0.00 0.11 0.00 66 1013.9
20260508181202 75 316 3.0 4.0 0.00 0.11 0.00 66 1013.9
20260508181102 75 333 2.0 4.0 0.00 0.11 0.00 66 1013.9
20260508180902 75 352 1.0 4.0 0.00 0.11 0.00 66 1014.0
20260508180702 75 360 4.0 4.0 0.00 0.11 0.00 66 1014.0
20260508180402 75 228 0.0 4.0 0.00 0.11 0.00 65 1014.0
20260508180301 75 274 2.0 4.0 0.00 0.11 0.00 65 1014.0
20260508180201 75 300 0.0 4.0 0.00 0.11 0.00 65 1014.1
20260508180007 76 326 3.0 4.0 0.00 0.11 0.00 64 1014.0
20260508175903 76 342 2.0 4.0 0.00 0.11 0.00 63 1014.2
20260508175803 76 328 0.0 4.0 0.00 0.11 0.00 64 1014.1
20260508175702 76 329 3.0 4.0 0.00 0.11 0.00 63 1014.1
20260508175603 76 317 2.0 4.0 0.00 0.11 0.00 63 1014.1
20260508175505 76 148 0.0 4.0 0.00 0.11 0.00 63 1014.1
20260508175402 77 283 2.0 4.0 0.00 0.11 0.00 64 1014.1
20260508175305 76 311 3.0 4.0 0.00 0.11 0.00 63 1014.0
20260508175104 77 297 2.0 4.0 0.00 0.11 0.00 63 1014.0
20260508175007 77 301 1.0 4.0 0.00 0.11 0.00 63 1014.2
20260508174904 76 317 2.0 4.0 0.00 0.11 0.00 63 1014.3
20260508174803 76 1 0.0 4.0 0.00 0.11 0.00 63 1014.3
20260508174703 76 286 3.0 4.0 0.00 0.11 0.00 63 1014.4
20260508174505 76 1 2.0 4.0 0.00 0.11 0.00 63 1014.4
20260508174403 76 267 2.0 4.0 0.00 0.11 0.00 64 1014.4
20260508174303 76 316 0.0 4.0 0.00 0.11 0.00 66 1014.4
20260508174204 75 307 3.0 4.0 0.00 0.11 0.00 64 1014.4
20260508174103 75 282 2.0 4.0 0.00 0.11 0.00 64 1014.4
20260508174013 75 338 1.0 4.0 0.00 0.11 0.00 63 1014.4
20260508173903 75 303 1.0 4.0 0.00 0.11 0.00 63 1014.5
20260508173803 76 227 0.0 4.0 0.00 0.11 0.00 63 1014.5
20260508173703 76 338 0.0 4.0 0.00 0.11 0.00 64 1014.5
20260508173603 76 50 0.0 4.0 0.00 0.11 0.00 63 1014.5
20260508173506 76 309 3.0 4.0 0.00 0.11 0.00 62 1014.5
20260508173303 76 231 1.0 4.0 0.00 0.11 0.00 61 1014.5
20260508173203 77 136 0.0 4.0 0.00 0.11 0.00 61 1014.5
20260508173102 77 333 3.0 4.0 0.00 0.11 0.00 61 1014.4
20260508172903 76 322 2.0 4.0 0.00 0.11 0.00 64 1014.4
20260508172803 76 340 3.0 4.0 0.00 0.11 0.00 64 1014.5
20260508172603 76 236 2.0 4.0 0.00 0.11 0.00 63 1014.4
20260508172505 76 184 0.0 4.0 0.00 0.11 0.00 64 1014.3
20260508172402 76 280 2.0 4.0 0.00 0.11 0.00 63 1014.4
20260508172306 76 311 1.0 4.0 0.00 0.11 0.00 63 1014.5
20260508172203 76 290 3.0 4.0 0.00 0.11 0.00 63 1014.4
20260508172103 76 322 2.0 4.0 0.00 0.11 0.00 61 1014.5
20260508172006 76 356 0.0 4.0 0.00 0.11 0.00 63 1014.5
20260508171904 76 303 2.0 5.0 0.00 0.11 0.00 63 1014.4
20260508171803 76 274 3.0 5.0 0.00 0.11 0.00 64 1014.4
20260508171703 76 273 0.0 5.0 0.00 0.11 0.00 63 1014.5
20260508171603 75 302 0.0 5.0 0.00 0.11 0.00 63 1014.5
20260508171506 76 249 3.0 5.0 0.00 0.11 0.00 62 1014.5
20260508171403 76 158 0.0 5.0 0.00 0.11 0.00 62 1014.6
20260508171303 75 233 2.0 5.0 0.00 0.11 0.00 63 1014.6
20260508171202 75 131 3.0 5.0 0.00 0.11 0.00 62 1014.6
20260508171104 76 153 2.0 5.0 0.00 0.11 0.00 62 1014.6
20260508171006 76 285 1.0 4.0 0.00 0.11 0.00 62 1014.6
20260508170902 76 243 0.0 4.0 0.00 0.11 0.00 63 1014.6
20260508170804 75 314 3.0 4.0 0.00 0.11 0.00 62 1014.7
20260508170603 75 245 3.0 4.0 0.00 0.11 0.00 63 1014.6
20260508170505 75 255 4.0 4.0 0.00 0.11 0.00 62 1014.6
20260508170303 76 321 3.0 4.0 0.00 0.11 0.00 62 1014.7
20260508165803 76 236 0.0 5.0 0.00 0.21 0.00 61 1014.6
20260508165702 76 177 0.0 5.0 0.00 0.21 0.00 63 1014.7
20260508165602 76 284 1.0 5.0 0.00 0.21 0.00 61 1014.6
20260508165505 76 293 2.0 5.0 0.00 0.21 0.00 63 1014.6
20260508165401 76 6 3.0 5.0 0.00 0.21 0.00 63 1014.6
20260508165301 76 338 4.0 5.0 0.00 0.21 0.00 62 1014.5
20260508165103 76 14 4.0 5.0 0.00 0.21 0.00 61 1014.5
20260508165005 76 286 3.0 5.0 0.00 0.21 0.00 62 1014.5
20260508164902 76 250 3.0 5.0 0.00 0.21 0.00 61 1014.7
20260508164802 76 321 0.0 5.0 0.00 0.21 0.00 61 1014.7
20260508164701 76 345 3.0 5.0 0.00 0.21 0.00 61 1014.7
20260508164505 76 360 0.0 5.0 0.00 0.21 0.00 62 1014.8
20260508164402 76 30 4.0 5.0 0.00 0.21 0.00 63 1014.8
20260508164201 76 252 2.0 5.0 0.00 0.21 0.00 63 1014.7
20260508164102 76 295 3.0 5.0 0.00 0.21 0.00 62 1014.8
20260508164005 76 311 2.0 5.0 0.00 0.21 0.00 61 1014.8
20260508163902 76 251 3.0 5.0 0.00 0.21 0.00 63 1014.9
20260508163802 76 321 2.0 5.0 0.00 0.21 0.00 64 1014.8
20260508163702 75 259 2.0 5.0 0.00 0.21 0.00 63 1014.9
20260508163601 75 292 2.0 5.0 0.00 0.21 0.00 64 1014.8
20260508163505 75 252 1.0 5.0 0.00 0.21 0.00 63 1014.8
20260508163401 75 335 2.0 4.0 0.00 0.21 0.00 63 1014.9
20260508163302 75 277 2.0 4.0 0.00 0.21 0.00 65 1015.0
20260508163202 74 307 3.0 4.0 0.00 0.21 0.00 63 1015.0
20260508163101 75 248 0.0 5.0 0.00 0.21 0.00 64 1015.2
20260508163006 75 288 2.0 5.0 0.00 0.21 0.00 64 1015.2
20260508162902 75 307 2.0 5.0 0.00 0.21 0.00 63 1015.3
20260508162702 75 314 2.0 5.0 0.00 0.21 0.00 63 1015.3
20260508162601 75 301 2.0 5.0 0.00 0.21 0.00 63 1015.3
20260508162505 75 242 2.0 5.0 0.00 0.21 0.00 63 1015.3
20260508162401 75 297 2.0 6.0 0.00 0.21 0.00 63 1015.3
20260508162306 75 6 4.0 6.0 0.00 0.21 0.00 63 1015.2
20260508162201 75 281 2.0 9.0 0.00 0.21 0.00 63 1015.2
20260508162102 75 280 3.0 9.0 0.00 0.21 0.00 64 1015.2
20260508162005 75 296 1.0 9.0 0.00 0.21 0.00 64 1015.2
20260508161902 75 254 3.0 9.0 0.00 0.21 0.00 63 1015.2
20260508161802 75 338 2.0 9.0 0.00 0.21 0.00 64 1015.1
20260508161701 74 271 4.0 9.0 0.00 0.21 0.00 63 1015.1
20260508161602 74 216 3.0 9.0 0.00 0.21 0.00 62 1015.1
20260508161505 75 148 4.0 9.0 0.00 0.21 0.00 62 1015.2
20260508161401 75 155 1.0 9.0 0.00 0.21 0.00 61 1015.2
20260508161201 75 98 8.0 8.0 0.00 0.21 0.00 61 1015.2
20260508161006 76 59 1.0 6.0 0.00 0.21 0.00 62 1015.3
20260508160902 76 336 2.0 8.0 0.00 0.21 0.00 64 1015.3
20260508160802 75 267 3.0 8.0 0.00 0.21 0.00 65 1015.4
20260508160505 74 179 3.0 8.0 0.00 0.21 0.00 63 1015.4
20260508160302 74 41 3.0 8.0 0.00 0.21 0.00 63 1015.4
20260508160007 75 321 0.0 6.0 0.00 0.21 0.00 64 1015.5
20260508155802 74 258 3.0 8.0 0.00 0.30 0.00 63 1015.5
20260508155703 74 356 3.0 8.0 0.00 0.30 0.00 64 1015.5
20260508155603 74 360 0.0 8.0 0.00 0.30 0.00 63 1015.5
20260508155505 74 340 2.0 8.0 0.00 0.30 0.00 65 1015.6
20260508155203 74 186 3.0 8.0 0.00 0.30 0.00 64 1015.7
20260508155103 74 236 2.0 8.0 0.00 0.30 0.00 64 1015.7
20260508155006 74 302 2.0 8.0 0.00 0.30 0.00 63 1015.7
20260508154803 74 340 0.0 5.0 0.00 0.30 0.00 63 1015.8
20260508154703 74 134 0.0 5.0 0.00 0.30 0.00 65 1015.8
20260508154603 74 356 1.0 5.0 0.00 0.30 0.00 63 1015.9
20260508154505 74 117 2.0 5.0 0.00 0.30 0.00 63 1015.9
20260508154403 74 212 1.0 5.0 0.00 0.30 0.00 63 1015.9
20260508154302 74 298 0.0 5.0 0.00 0.30 0.00 64 1015.9
20260508154202 74 326 2.0 5.0 0.00 0.30 0.00 64 1015.9
20260508154103 74 352 4.0 5.0 0.00 0.30 0.00 64 1015.9
20260508154007 74 352 4.0 4.0 0.00 0.30 0.00 65 1015.9
20260508153704 73 338 2.0 8.0 0.00 0.30 0.00 67 1016.0
20260508153603 73 347 2.0 8.0 0.00 0.30 0.00 66 1015.9
20260508153505 73 324 1.0 8.0 0.00 0.30 0.00 66 1015.9
20260508153402 73 247 0.0 8.0 0.00 0.30 0.00 65 1015.9
20260508153303 73 353 1.0 8.0 0.00 0.30 0.00 65 1016.0
20260508153203 73 302 2.0 8.0 0.00 0.30 0.00 65 1015.9
20260508153103 73 307 3.0 8.0 0.00 0.30 0.00 65 1015.9
20260508153006 73 328 3.0 8.0 0.00 0.30 0.00 66 1015.9
20260508152902 73 31 2.0 6.0 0.00 0.30 0.00 65 1015.8
20260508152803 73 312 4.0 6.0 0.00 0.30 0.00 66 1015.9
20260508152703 73 323 3.0 6.0 0.00 0.30 0.00 67 1015.9
20260508152602 73 310 2.0 6.0 0.00 0.30 0.00 67 1015.9
20260508152505 73 316 6.0 6.0 0.00 0.30 0.00 68 1015.9
20260508152402 73 288 2.0 5.0 0.00 0.30 0.00 68 1015.8
20260508152305 73 337 2.0 5.0 0.00 0.30 0.00 68 1015.8
20260508152203 73 297 0.0 655.0 1.42 0.95 0.00 68
20260508152104 73 319 3.0 6.0 0.00 0.30 0.00 67 1015.8
20260508152006 73 340 3.0 6.0 0.00 0.30 0.00 68 1015.8
20260508151903 73 307 1.0 6.0 0.00 0.30 0.00 68 1015.8
20260508151802 73 304 0.0 6.0 0.00 0.30 0.00 68 1015.8
20260508151702 73 266 2.0 6.0 0.00 0.30 0.00 67 1015.9
20260508151505 73 290 4.0 6.0 0.00 0.30 0.00 67 1015.9
20260508151403 73 307 0.0 6.0 0.00 0.30 0.00 66 1015.9
20260508151304 73 141 2.0 6.0 0.00 0.30 0.00 68 1015.9
20260508151204 72 351 2.0 6.0 0.00 0.30 0.00 67 1015.9
20260508151103 72 296 3.0 6.0 0.00 0.30 0.00 67 1015.8
20260508151006 72 310 3.0 6.0 0.00 0.30 0.00 66 1015.8
20260508150903 72 209 0.0 6.0 0.00 0.30 0.00 66 1015.8
20260508150802 72 174 2.0 6.0 0.00 0.30 0.00 65 1015.8
20260508150703 73 340 0.0 6.0 0.00 0.30 0.00 65 1015.8
20260508150605 73 125 5.0 6.0 0.00 0.30 0.00 65 1015.7
20260508150505 73 283 2.0 5.0 0.00 0.30 0.00 66 1015.7
20260508150403 73 19 1.0 5.0 0.00 0.30 0.00 67 1015.7
20260508150303 73 295 3.0 5.0 0.00 0.30 0.00 67 1015.7
20260508150006 72 326 1.0 5.0 0.00 0.36 0.00 67 1015.9
20260508145802 72 298 3.0 6.0 0.00 0.36 0.00 67 1015.8
20260508145701 72 279 1.0 6.0 0.00 0.36 0.00 67 1015.7
20260508145505 72 135 4.0 6.0 0.00 0.36 0.00 66 1015.7
20260508145403 72 77 3.0 6.0 0.00 0.36 0.00 67 1015.8
20260508145306 72 288 2.0 6.0 0.00 0.36 0.00 67 1015.8
20260508145201 72 155 1.0 6.0 0.00 0.36 0.00 67 1015.9
20260508145103 72 333 3.0 6.0 0.00 0.36 0.00 67 1015.8
20260508145005 72 243 3.0 6.0 0.00 0.36 0.00 67 1015.8
20260508144901 72 5 3.0 6.0 0.00 0.36 0.00 67 1015.8
20260508144801 71 297 3.0 6.0 0.00 0.36 0.00 67 1015.8
20260508144702 71 153 0.0 6.0 0.00 0.36 0.00 66 1015.9
20260508144602 71 286 3.0 9.0 0.00 0.36 0.00 67 1015.8
20260508144505 71 296 1.0 9.0 0.00 0.36 0.00 67 1015.8
20260508144402 71 158 2.0 9.0 0.00 0.36 0.00 68 1015.7
20260508144201 71 342 0.0 9.0 0.00 0.36 0.00 69 1015.7
20260508144101 71 68 1.0 9.0 0.00 0.36 0.00 69 1015.7
20260508144006 71 203 2.0 9.0 0.00 0.36 0.00 69 1015.7
20260508143902 71 300 3.0 9.0 0.00 0.36 0.00 69 1015.7
20260508143602 71 316 3.0 5.0 0.00 0.36 0.00 70 1015.7
20260508143505 71 307 2.0 5.0 0.00 0.36 0.00 70 1015.9
20260508143403 71 286 3.0 5.0 0.00 0.36 0.00 72 1015.9
20260508143302 71 309 3.0 5.0 0.00 0.36 0.00 72 1015.9
20260508143202 70 249 3.0 7.0 0.00 0.36 0.00 71 1016.0
20260508143102 70 326 3.0 7.0 0.00 0.36 0.00 71 1015.9
20260508143006 70 347 3.0 7.0 0.00 0.36 0.00 71 1016.0
20260508142902 70 321 2.0 7.0 0.00 0.36 0.00 72 1016.0
20260508142801 70 257 4.0 7.0 0.00 0.36 0.00 72 1016.0
20260508142702 70 302 2.0 7.0 0.00 0.36 0.00 72 1016.0
20260508142602 70 328 1.0 7.0 0.00 0.36 0.00 73 1016.0
20260508142505 70 314 0.0 7.0 0.00 0.36 0.00 73 1016.0
20260508142402 70 27 3.0 7.0 0.00 0.36 0.00 72 1016.1
20260508142301 70 314 5.0 6.0 0.00 0.36 0.00 72 1016.1
20260508142202 70 293 2.0 5.0 0.00 0.36 0.00 73 1016.1
20260508142102 70 282 3.0 5.0 0.00 0.36 0.00 73 1016.1
20260508142005 70 326 2.0 5.0 0.00 0.36 0.00 73 1016.1
20260508141602 70 352 2.0 5.0 0.00 0.36 0.00 73 1016.0
20260508141505 70 269 3.0 5.0 0.00 0.36 0.00 73 1016.0
20260508141302 70 271 1.0 5.0 0.00 0.36 0.00 75 1016.0
20260508141006 69 295 2.0 5.0 0.00 0.36 0.00 77 1016.1
20260508140901 69 11 3.0 5.0 0.00 0.36 0.00 77 1016.2
20260508140701 68 348 2.0 4.0 0.00 0.36 0.00 77 1016.1
20260508140603 68 6 3.0 4.0 0.00 0.36 0.00 77 1016.1
20260508140401 68 353 0.0 9.0 0.00 0.36 0.00 77 1016.1
20260508140201 68 164 2.0 9.0 0.00 0.36 0.00 77 1016.1
20260508140005 68 328 1.0 9.0 0.00 0.46 0.00 77 1016.0
20260508135902 68 319 0.0 9.0 0.00 0.46 0.00 77 1016.0
20260508135702 68 153 0.0 9.0 0.00 0.46 0.00 78 1016.1
20260508135505 68 319 3.0 9.0 0.00 0.46 0.00 78 1016.0
20260508135401 68 331 4.0 6.0 0.00 0.46 0.00 79 1016.0
20260508135305 68 326 2.0 6.0 0.00 0.46 0.00 79 1016.1
20260508135201 67 309 0.0 6.0 0.00 0.46 0.00 79 1016.1
20260508135102 67 46 0.0 6.0 0.00 0.46 0.00 79 1016.1
20260508135006 67 340 0.0 6.0 0.00 0.46 0.00 79 1016.1
20260508134901 67 319 0.0 6.0 0.00 0.46 0.00 79 1016.0
20260508134801 67 330 3.0 6.0 0.00 0.46 0.00 79 1016.1
20260508134703 67 317 0.0 6.0 0.00 0.46 0.00 79 1016.0
20260508134602 67 319 0.0 6.0 0.00 0.46 0.00 79 1016.0
20260508134505 67 316 4.0 5.0 0.00 0.46 0.00 79 1016.0
20260508134401 67 32 2.0 4.0 0.00 0.46 0.00 79 1016.0
20260508134302 67 328 1.0 4.0 0.00 0.46 0.00 79 1016.0
20260508134102 67 307 2.0 4.0 0.00 0.46 0.00 80 1016.0
20260508134005 67 29 3.0 3.0 0.00 0.46 0.00 80 1016.0
20260508133902 67 87 0.0 3.0 0.00 0.46 0.00 80 1016.0
20260508133802 67 321 0.0 3.0 0.00 0.46 0.00 80 1016.1
20260508133702 67 309 0.0 3.0 0.00 0.46 0.00 80 1016.0
20260508133604 67 338 0.0 3.0 0.00 0.46 0.00 80 1016.0
20260508133504 67 198 1.0 3.0 0.00 0.46 0.00 80 1016.0
20260508133302 67 34 0.0 3.0 0.00 0.46 0.00 80 1016.1
20260508133202 67 323 0.0 3.0 0.00 0.46 0.00 80 1016.0
20260508133103 67 330 0.0 3.0 0.00 0.46 0.00 80 1016.0
20260508133005 67 352 2.0 3.0 0.00 0.46 0.00 81 1016.0
20260508132902 67 355 2.0 3.0 0.00 0.46 0.00 80 1016.0
20260508132801 67 30 0.0 3.0 0.00 0.46 0.00 80 1015.9
20260508132702 67 339 2.0 3.0 0.00 0.46 0.00 81 1016.0
20260508132601 66 274 0.0 3.0 0.00 0.46 0.00 81 1016.0
20260508132505 67 342 0.0 3.0 0.00 0.46 0.00 81 1016.0
20260508132401 66 319 0.0 3.0 0.00 0.46 0.00 81 1015.9
20260508132306 66 338 1.0 3.0 0.00 0.46 0.00 81 1016.0
20260508132202 66 323 0.0 4.0 0.00 0.46 0.00 81 1016.0
20260508132102 66 17 0.0 4.0 0.00 0.46 0.00 81 1015.9
20260508132005 66 356 2.0 4.0 0.00 0.46 0.00 81 1015.9
20260508131902 66 1 1.0 4.0 0.00 0.46 0.00 81 1016.0
20260508131802 66 325 0.0 4.0 0.00 0.46 0.00 81 1016.0
20260508131702 66 321 0.0 4.0 0.00 0.46 0.00 81 1016.0
20260508131602 66 321 0.0 6.0 0.00 0.46 0.00 81 1015.8
20260508131505 66 338 0.0 6.0 0.00 0.46 0.00 82 1015.8
20260508131403 66 351 0.0 6.0 0.00 0.46 0.00 81 1015.8
20260508131302 66 337 2.0 6.0 0.00 0.46 0.00 82 1015.9
20260508131202 66 304 0.0 6.0 0.00 0.46 0.00 82 1015.9
20260508131102 66 137 1.0 6.0 0.00 0.46 0.00 82 1015.8
20260508131005 66 251 0.0 6.0 0.00 0.46 0.00 82 1015.8
20260508130902 66 342 0.0 6.0 0.00 0.46 0.00 81 1015.8
20260508130702 66 307 0.0 3.0 0.00 0.46 0.00 82 1015.8
20260508130403 66 323 0.0 4.0 0.00 0.46 0.00 82 1015.7
20260508130301 66 330 1.0 4.0 0.00 0.46 0.00 82 1015.8
20260508130202 66 193 2.0 4.0 0.00 0.46 0.00 82 1015.6
20260508130007 66 240 0.0 4.0 0.00 0.46 0.00 82 1015.7
20260508125902 66 188 0.0 4.0 0.00 1.04 0.00 82 1015.6
20260508125802 66 37 0.0 4.0 0.00 1.04 0.00 83 1015.6
20260508125602 66 183 1.0 5.0 0.00 1.04 0.00 82 1015.6
20260508125402 66 47 0.0 5.0 0.00 1.04 0.00 83 1015.7
20260508125305 66 47 0.0 5.0 0.00 1.04 0.00 83 1015.6
20260508125202 66 47 0.0 5.0 0.00 1.04 0.00 83 1015.7
20260508125102 66 37 1.0 5.0 0.00 1.04 0.00 83 1015.5
20260508124902 66 24 0.0 6.0 0.00 1.04 0.00 83 1015.4
20260508124803 66 330 3.0 6.0 0.00 1.04 0.00 83 1015.4
20260508124704 66 224 1.0 6.0 0.00 1.04 0.00 83 1015.4
20260508124602 66 186 3.0 6.0 0.00 1.04 0.00 83 1015.2
20260508124403 65 360 0.0 6.0 0.00 1.04 0.00 83 1015.1
20260508124303 65 319 1.0 6.0 0.00 1.04 0.00 83 1014.9
20260508124202 65 141 0.0 6.0 0.00 1.04 0.00 84 1015.0
20260508124102 65 122 3.0 6.0 0.00 1.04 0.00 84 1015.0
20260508124005 65 223 0.0 6.0 0.00 1.04 0.00 84 1015.0
20260508123902 65 219 1.0 5.0 0.00 1.04 0.00 84 1015.0
20260508123802 65 139 2.0 5.0 0.00 1.04 0.00 84 1015.1
20260508123702 65 150 0.0 6.0 0.00 1.04 0.00 84 1015.2
20260508123602 65 162 2.0 6.0 0.00 1.04 0.00 85 1015.3
20260508123505 65 75 0.0 6.0 0.00 1.04 0.00 85 1015.3
20260508123303 65 137 1.0 6.0 0.00 1.04 0.00 85 1015.3
20260508123103 65 330 0.0 6.0 0.00 1.04 0.00 85 1015.4
20260508123006 65 321 0.0 6.0 0.00 1.04 0.00 85 1015.4
20260508122903 65 150 0.0 6.0 0.00 1.04 0.00 85 1015.5
20260508122702 65 148 2.0 3.0 0.00 1.04 0.00 86 1015.6
20260508122602 65 113 0.0 3.0 0.00 1.04 0.00 86 1015.6
20260508122505 65 172 0.0 3.0 0.00 1.04 0.00 86 1015.6
20260508122402 65 48 1.0 3.0 0.00 1.04 0.00 86 1015.6
20260508122302 65 165 0.0 3.0 0.00 1.04 0.00 86 1015.6
20260508122102 65 10 1.0 3.0 0.00 1.04 0.00 87 1015.6
20260508121902 65 323 0.0 3.0 0.00 1.04 0.00 87 1015.7
20260508121801 65 323 0.0 3.0 0.00 1.04 0.00 87 1015.7
20260508121702 65 252 0.0 3.0 0.00 1.04 0.00 87 1015.7
20260508121602 65 158 2.0 2.0 0.00 1.04 0.00 87 1015.7
20260508121506 65 236 0.0 2.0 0.00 1.04 0.00 87 1015.7
20260508121402 65 225 1.0 2.0 0.00 1.04 0.00 87 1015.8
20260508121201 65 254 0.0 2.0 0.00 1.04 0.00 88 1015.7
20260508121006 65 254 0.0 2.0 0.00 1.04 0.00 88 1015.7
20260508120901 65 254 0.0 2.0 0.00 1.04 0.00 88 1015.7
20260508120801 65 254 0.0 2.0 0.00 1.04 0.00 88 1015.7
20260508120703 65 255 0.0 2.0 0.00 1.04 0.00 88 1015.7
20260508120505 65 234 0.0 3.0 0.00 1.04 0.00 88 1015.8
20260508120403 64 306 0.0 4.0 0.00 1.04 0.00 88 1015.7
20260508120303 64 306 0.0 4.0 0.00 1.04 0.00 88 1015.6
20260508120203 64 334 1.0 4.0 0.00 1.04 0.00 88 1015.7
20260508120006 64 169 0.0 4.0 0.00 1.04 0.00 88 1015.7
20260508115901 64 169 0.0 4.0 0.00 1.05 0.00 88 1015.5
20260508115702 64 220 3.0 4.0 0.00 1.05 0.00 88 1015.6
20260508115506 64 284 3.0 4.0 0.00 1.05 0.00 89 1015.6
20260508115401 64 229 3.0 3.0 0.00 1.05 0.00 89 1015.6
20260508115305 64 204 0.0 3.0 0.00 1.05 0.00 89 1015.7
20260508115202 64 222 0.0 3.0 0.00 1.05 0.00 89 1015.6
20260508115101 64 222 0.0 3.0 0.00 1.05 0.00 89 1015.6
20260508115005 64 219 0.0 3.0 0.00 1.05 0.00 89 1015.6
20260508114901 64 219 0.0 3.0 0.00 1.05 0.00 89 1015.6
20260508114702 64 204 0.0 3.0 0.00 1.05 0.00 89 1015.5
20260508114601 64 244 0.0 3.0 0.00 1.05 0.00 89 1015.5
20260508114505 64 317 2.0 3.0 0.00 1.05 0.00 90 1015.5
20260508114402 64 223 0.0 2.0 0.00 1.05 0.00 90 1015.5
20260508114201 64 326 0.0 2.0 0.00 1.05 0.00 90 1015.6
20260508114006 64 257 0.0 2.0 0.00 1.05 0.00 90 1015.5
20260508113902 64 225 0.0 2.0 0.00 1.05 0.00 90 1015.5
20260508113801 64 267 0.0 2.0 0.00 1.05 0.00 90 1015.5
20260508113701 64 240 0.0 2.0 0.00 1.05 0.00 90 1015.6
20260508113602 64 221 0.0 3.0 0.00 1.05 0.00 90 1015.5
20260508113505 64 221 0.0 3.0 0.00 1.05 0.00 90 1015.5
20260508113402 64 221 0.0 3.0 0.00 1.05 0.00 90 1015.5
20260508113302 64 295 2.0 3.0 0.00 1.05 0.00 90 1015.5
20260508113201 64 247 0.0 3.0 0.00 1.05 0.00 90 1015.5
20260508113102 64 231 0.0 3.0 0.00 1.05 0.00 90 1015.5
20260508113006 64 231 0.0 3.0 0.00 1.05 0.00 90 1015.5
20260508112902 64 244 0.0 3.0 0.00 1.05 0.00 90 1015.4
20260508112802 64 228 1.0 3.0 0.00 1.05 0.00 90 1015.3
20260508112702 64 238 0.0 2.0 0.00 1.05 0.00 90 1015.3
20260508112602 64 246 0.0 2.0 0.00 1.05 0.00 91 1015.2
20260508112402 64 323 0.0 2.0 0.00 1.05 0.00 90 1015.1
20260508112301 64 323 0.0 2.0 0.00 1.05 0.00 90 1015.0
20260508112201 64 220 0.0 2.0 0.00 1.05 0.00 90 1015.0
20260508112103 64 220 0.0 2.0 0.00 1.05 0.00 90 1015.0
20260508112007 64 220 0.0 2.0 0.00 1.05 0.00 91 1015.1
20260508111902 64 220 0.0 2.0 0.00 1.05 0.00 91 1015.1
20260508111701 64 197 0.0 2.0 0.00 1.05 0.00 91 1015.1
20260508111505 64 220 0.0 2.0 0.00 1.05 0.00 91 1015.1
20260508111402 64 215 0.0 3.0 0.00 1.05 0.00 91 1015.2
20260508111202 64 215 0.0 3.0 0.00 1.05 0.00 91 1015.2
20260508111103 64 237 1.0 3.0 0.00 1.05 0.00 91 1015.2
20260508111005 64 237 0.0 3.0 0.00 1.05 0.00 91 1015.2
20260508110902 64 241 0.0 3.0 0.00 1.05 0.00 91 1015.2
20260508110802 64 252 0.0 3.0 0.00 1.05 0.00 91 1015.2
20260508110701 64 252 0.0 3.0 0.00 1.05 0.00 91 1015.1
20260508110603 63 227 0.0 3.0 0.00 1.05 0.00 91 1015.1
20260508110401 64 236 0.0 2.0 0.00 1.05 0.00 91 1014.9
20260508110203 63 328 0.0 2.0 0.00 1.05 0.00 91 1014.8
20260508110006 64 240 0.0 2.0 0.00 1.05 0.00 91 1014.8
20260508105901 63 234 0.0 2.0 0.00 1.05 0.00 91 1014.8
20260508105802 63 236 0.0 2.0 0.00 1.05 0.00 91 1014.7
20260508105702 63 225 1.0 2.0 0.00 1.05 0.00 91 1014.7
20260508105603 63 244 0.0 2.0 0.00 1.05 0.00 91 1014.7
20260508105505 63 230 0.0 2.0 0.00 1.05 0.00 91 1014.7
20260508105201 63 247 0.0 2.0 0.00 1.05 0.00 91 1014.7
20260508104901 63 257 2.0 3.0 0.00 1.05 0.00 91 1014.5
20260508104803 63 237 2.0 3.0 0.00 1.05 0.00 91 1014.5
20260508104703 63 245 2.0 3.0 0.00 1.05 0.00 91 1014.3
20260508104601 63 214 0.0 3.0 0.00 1.05 0.00 91 1014.2
20260508104402 64 239 0.0 3.0 0.00 1.05 0.00 91 1014.3
20260508104302 63 249 1.0 3.0 0.00 1.05 0.00 91 1014.3
20260508104102 63 186 0.0 3.0 0.00 1.05 0.00 91 1014.1
20260508104006 63 202 3.0 3.0 0.00 1.05 0.00 91 1014.1
20260508103902 63 183 0.0 3.0 0.00 1.05 0.00 91 1014.1
20260508103801 63 169 2.0 3.0 0.00 1.05 0.00 91 1014.1
20260508103701 63 217 1.0 2.0 0.00 1.05 0.00 91 1014.0
20260508103602 63 197 0.0 2.0 0.00 1.05 0.00 91 1014.1
20260508103504 63 210 1.0 2.0 0.00 1.05 0.00 91 1014.1
20260508103402 63 213 0.0 2.0 0.00 1.05 0.00 91 1014.0
20260508103301 63 227 0.0 2.0 0.00 1.05 0.00 91 1014.0
20260508103202 63 235 0.0 2.0 0.00 1.05 0.00 91 1014.1
20260508103101 63 234 0.0 2.0 0.00 1.05 0.00 91 1014.1
20260508103007 63 234 0.0 2.0 0.00 1.05 0.00 91 1014.1
20260508102903 64 246 0.0 2.0 0.00 1.05 0.00 91 1014.1
20260508102801 64 217 0.0 2.0 0.00 1.05 0.00 91 1014.2
20260508102701 64 227 0.0 2.0 0.00 1.05 0.00 91 1014.1
20260508102602 64 227 2.0 2.0 0.00 1.05 0.00 91 1014.1
20260508102505 64 216 1.0 3.0 0.00 1.05 0.00 91 1014.1
20260508102401 64 233 0.0 3.0 0.00 1.05 0.00 91 1014.1
20260508102306 63 208 0.0 3.0 0.00 1.05 0.00 91 1014.0
20260508102202 64 206 1.0 3.0 0.00 1.05 0.00 91 1014.0
20260508102102 64 227 0.0 3.0 0.00 1.05 0.00 91 1014.0
20260508102005 64 222 0.0 3.0 0.00 1.05 0.00 91 1014.0
20260508101901 64 230 0.0 3.0 0.00 1.05 0.00 91 1014.1
20260508101801 64 230 0.0 3.0 0.00 1.05 0.00 91 1014.0
20260508101701 64 226 2.0 3.0 0.00 1.05 0.00 91 1013.9
20260508101601 64 220 2.0 2.0 0.00 1.05 0.00 91 1014.0
20260508101505 64 221 2.0 2.0 0.00 1.05 0.00 91 1014.0
20260508101402 64 244 0.0 2.0 0.00 1.05 0.00 91 1013.9
20260508101202 64 244 0.0 2.0 0.00 1.05 0.00 91 1013.9
20260508101103 64 244 0.0 2.0 0.00 1.05 0.00 91 1014.0
20260508101006 64 249 0.0 2.0 0.00 1.05 0.00 91 1014.0
20260508100902 64 237 0.0 2.0 0.00 1.05 0.00 91 1013.9
20260508100801 64 224 0.0 3.0 0.00 1.05 0.00 91 1013.8
20260508100702 64 235 0.0 3.0 0.00 1.05 0.00 91 1013.8
20260508100601 64 235 1.0 3.0 0.00 1.05 0.00 91 1013.8
20260508100505 63 229 1.0 3.0 0.00 1.05 0.00 91 1013.8
20260508100402 63 228 0.0 3.0 0.00 1.05 0.00 91 1013.7
20260508100301 63 218 0.0 3.0 0.00 1.05 0.00 91 1013.7
20260508100201 63 199 0.0 3.0 0.00 1.05 0.00 91 1013.6
20260508100103 63 214 0.0 3.0 0.00 1.05 0.00 91 1013.6
20260508100006 63 197 0.0 3.0 0.00 1.05 0.00 91 1013.6
20260508095902 63 162 1.0 3.0 0.00 1.05 0.00 91 1013.6
20260508095802 63 194 1.0 3.0 0.00 1.05 0.00 91 1013.6
20260508095703 63 209 0.0 3.0 0.00 1.05 0.00 91 1013.6
20260508095601 63 209 3.0 3.0 0.00 1.05 0.00 91 1013.6
20260508095505 64 214 2.0 3.0 0.00 1.05 0.00 91 1013.6
20260508095202 64 200 1.0 3.0 0.00 1.05 0.00 91 1013.7
20260508095102 64 239 0.0 3.0 0.00 1.05 0.00 91 1013.7
20260508095006 64 218 0.0 3.0 0.00 1.05 0.00 91 1013.7
20260508094901 64 210 0.0 3.0 0.00 1.05 0.00 91 1013.8
20260508094803 64 205 1.0 3.0 0.00 1.05 0.00 91 1013.9
20260508094701 64 228 1.0 3.0 0.00 1.05 0.00 91 1013.8
20260508094506 64 207 2.0 3.0 0.00 1.05 0.00 91 1013.7
20260508094402 64 221 1.0 2.0 0.00 1.05 0.00 91 1013.7
20260508094302 64 208 0.0 2.0 0.00 1.05 0.00 91 1013.6
20260508094202 64 212 0.0 2.0 0.00 1.05 0.00 91 1013.6
20260508094004 64 197 0.0 2.0 0.00 1.05 0.00 91 1013.7
20260508093901 64 211 1.0 2.0 0.00 1.05 0.00 91 1013.6
20260508093602 64 183 0.0 3.0 0.00 1.05 0.00 91 1013.6
20260508093505 64 202 1.0 3.0 0.00 1.05 0.00 91 1013.6
20260508093402 64 222 0.0 3.0 0.00 1.05 0.00 91 1013.6
20260508093301 64 222 0.0 3.0 0.00 1.05 0.00 91 1013.5
20260508093201 64 231 0.0 3.0 0.00 1.05 0.00 91 1013.5
20260508093005 64 158 0.0 3.0 0.00 1.05 0.00 91 1013.5
20260508092903 64 208 0.0 3.0 0.00 1.05 0.00 91 1013.6
20260508092803 64 210 0.0 1.0 0.00 1.05 0.00 91 1013.6
20260508092701 64 176 0.0 1.0 0.00 1.05 0.00 91 1013.5
20260508092505 64 209 0.0 2.0 0.00 1.05 0.00 91 1013.6
20260508092402 64 216 0.0 2.0 0.00 1.05 0.00 91 1013.6
20260508092302 64 216 0.0 2.0 0.00 1.05 0.00 91 1013.7
20260508092202 64 216 0.0 2.0 0.00 1.05 0.00 91 1013.7
20260508092101 64 231 0.0 2.0 0.00 1.05 0.00 91 1013.8
20260508092004 64 231 0.0 2.0 0.00 1.05 0.00 91 1013.8
20260508091902 64 235 0.0 2.0 0.00 1.05 0.00 91 1013.8
20260508091802 64 232 0.0 2.0 0.00 1.05 0.00 91 1013.7
20260508091701 64 233 0.0 2.0 0.00 1.05 0.00 91 1013.8
20260508091602 64 209 2.0 2.0 0.00 1.05 0.00 91 1013.7
20260508091504 64 219 0.0 2.0 0.00 1.05 0.00 91 1013.7
20260508091401 64 232 0.0 2.0 0.00 1.05 0.00 90 1013.6
20260508091302 64 219 1.0 2.0 0.00 1.05 0.00 90 1013.6
20260508091005 64 224 0.0 2.0 0.00 1.05 0.00 90 1013.5
20260508090901 64 239 0.0 2.0 0.00 1.05 0.00 90 1013.4
20260508090801 64 204 0.0 0.0 0.00 1.05 0.00 90 1013.4
20260508090504 64 220 0.0 2.0 0.00 1.05 0.00 90 1013.4
20260508090401 64 220 0.0 2.0 0.00 1.05 0.00 90 1013.4
20260508090301 64 220 0.0 2.0 0.00 1.05 0.00 90 1013.3
20260508090201 64 220 0.0 2.0 0.00 1.05 0.00 90 1013.3
20260508090007 64 220 0.0 2.0 0.00 1.05 0.00 90 1013.4
20260508085900 64 207 0.0 2.0 0.00 1.05 0.00 90 1013.4
20260508085800 64 217 0.0 2.0 0.00 1.05 0.00 90 1013.4
20260508085701 64 217 0.0 2.0 0.00 1.05 0.00 90 1013.4
20260508085601 64 217 0.0 2.0 0.00 1.05 0.00 90 1013.3
20260508085505 64 217 0.0 2.0 0.00 1.05 0.00 90 1013.3
20260508085400 64 223 0.0 2.0 0.00 1.05 0.00 90 1013.4
20260508085301 64 219 0.0 2.0 0.00 1.05 0.00 90 1013.4
20260508085100 64 217 0.0 2.0 0.00 1.05 0.00 90 1013.4
20260508085006 64 215 0.0 2.0 0.00 1.05 0.00 90 1013.4
20260508084901 64 208 1.0 2.0 0.00 1.05 0.00 90 1013.3
20260508084801 64 208 0.0 2.0 0.00 1.05 0.00 90 1013.3
20260508084701 65 219 0.0 2.0 0.00 1.05 0.00 90 1013.3
20260508084601 64 191 0.0 2.0 0.00 1.05 0.00 90 1013.3
20260508084505 65 184 1.0 2.0 0.00 1.05 0.00 90 1013.3
20260508084401 65 206 0.0 2.0 0.00 1.05 0.00 90 1013.2
20260508084300 65 212 0.0 2.0 0.00 1.05 0.00 90 1013.3
20260508084201 65 191 0.0 2.0 0.00 1.05 0.00 90 1013.2
20260508084100 65 195 0.0 0.0 0.00 1.05 0.00 90 1013.3
20260508084005 65 195 0.0 0.0 0.00 1.05 0.00 90 1013.3
20260508083900 65 207 0.0 0.0 0.00 1.05 0.00 90 1013.3
20260508083801 65 207 0.0 0.0 0.00 1.05 0.00 90 1013.2
20260508083707 65 207 0.0 0.0 0.00 1.05 0.00 90 1013.2
20260508083504 65 207 0.0 0.0 0.00 1.05 0.00 90 1013.2
20260508083401 65 207 0.0 0.0 0.00 1.05 0.00 90 1013.3
20260508083300 65 262 0.0 0.0 0.00 1.05 0.00 90 1013.3
20260508083201 65 262 0.0 1.0 0.00 1.05 0.00 90 1013.4
20260508083006 65 262 0.0 2.0 0.00 1.05 0.00 90 1013.3
20260508082900 65 262 0.0 2.0 0.00 1.05 0.00 90 1013.3
20260508082800 65 261 0.0 2.0 0.00 1.05 0.00 90 1013.3
20260508082700 65 1 0.0 2.0 0.00 1.05 0.00 90 1013.3
20260508082504 65 1 0.0 2.0 0.00 1.05 0.00 90 1013.3
20260508082400 65 219 0.0 2.0 0.00 1.05 0.00 90 1013.3
20260508082200 65 210 2.0 2.0 0.00 1.05 0.00 90 1013.3
20260508082100 65 219 0.0 2.0 0.00 1.05 0.00 90 1013.3
20260508082005 65 228 0.0 2.0 0.00 1.05 0.00 90 1013.3
20260508081800 65 222 0.0 2.0 0.00 1.05 0.00 90 1013.3
20260508081602 65 244 0.0 2.0 0.00 1.05 0.00 90 1013.4
20260508081505 65 230 0.0 2.0 0.00 1.05 0.00 90 1013.4
20260508081301 65 231 0.0 2.0 0.00 1.05 0.00 90 1013.4
20260508081200 65 240 0.0 2.0 0.00 1.05 0.00 90 1013.4
20260508081101 65 220 0.0 2.0 0.00 1.05 0.00 90 1013.3
20260508081005 65 226 0.0 2.0 0.00 1.05 0.00 90 1013.3
20260508080900 65 223 0.0 2.0 0.00 1.05 0.00 90 1013.3
20260508080801 65 195 0.0 0.0 0.00 1.05 0.00 90 1013.3
20260508080700 65 195 0.0 0.0 0.00 1.05 0.00 90 1013.3
20260508080504 65 184 0.0 1.0 0.00 1.05 0.00 90 1013.3
20260508080401 65 184 0.0 1.0 0.00 1.05 0.00 90 1013.4
20260508080300 65 184 0.0 1.0 0.00 1.05 0.00 90 1013.5
20260508080200 65 184 0.0 2.0 0.00 1.05 0.00 90 1013.4
20260508080101 65 184 0.0 2.0 0.00 1.05 0.00 90 1013.4
20260508080006 65 184 0.0 2.0 0.00 1.05 0.00 90 1013.4
20260508075901 65 184 0.0 2.0 0.00 1.05 0.00 90 1013.4
20260508075800 65 184 0.0 2.0 0.00 1.05 0.00 90 1013.4
20260508075700 65 184 0.0 2.0 0.00 1.05 0.00 90 1013.4
20260508075600 65 165 0.0 2.0 0.00 1.05 0.00 90 1013.4
20260508075505 65 195 0.0 2.0 0.00 1.05 0.00 90 1013.4
20260508075401 65 197 0.0 2.0 0.00 1.05 0.00 90 1013.5
20260508075301 65 188 0.0 2.0 0.00 1.05 0.00 90 1013.4
20260508075100 65 211 0.0 1.0 0.00 1.05 0.00 90 1013.4
20260508075005 65 223 1.0 2.0 0.00 1.05 0.00 90 1013.4
20260508074901 65 224 0.0 2.0 0.00 1.05 0.00 90 1013.5
20260508074801 65 219 0.0 2.0 0.00 1.05 0.00 90 1013.5
20260508074700 65 157 0.0 2.0 0.00 1.05 0.00 90 1013.5
20260508074601 65 157 0.0 2.0 0.00 1.05 0.00 90 1013.5
20260508074505 65 157 0.0 2.0 0.00 1.05 0.00 90 1013.5
20260508074400 65 157 0.0 2.0 0.00 1.05 0.00 90 1013.4
20260508074300 65 157 0.0 2.0 0.00 1.05 0.00 89 1013.4
20260508074101 65 208 0.0 2.0 0.00 1.05 0.00 89 1013.6
20260508074005 65 186 1.0 2.0 0.00 1.05 0.00 89 1013.6
20260508073901 65 213 0.0 2.0 0.00 1.05 0.00 89 1013.7
20260508073801 65 213 0.0 2.0 0.00 1.05 0.00 89 1013.5
20260508073700 65 213 0.0 2.0 0.00 1.05 0.00 89 1013.6
20260508073559 65 213 0.0 2.0 0.00 1.05 0.00 89 1013.5
20260508073504 65 176 0.0 2.0 0.00 1.05 0.00 89 1013.5
20260508073400 65 195 0.0 2.0 0.00 1.05 0.00 89 1013.5
20260508073301 65 200 0.0 2.0 0.00 1.05 0.00 89 1013.6
20260508073201 65 206 0.0 2.0 0.00 1.05 0.00 89 1013.6
20260508073100 65 238 0.0 2.0 0.00 1.05 0.00 89 1013.6
20260508073006 65 238 0.0 2.0 0.00 1.05 0.00 89 1013.6
20260508072902 65 238 0.0 2.0 0.00 1.05 0.00 89 1013.6
20260508072700 65 222 0.0 0.0 0.00 1.05 0.00 89 1013.6
20260508072601 66 222 0.0 0.0 0.00 1.05 0.00 89 1013.6
20260508072505 66 204 0.0 1.0 0.00 1.05 0.00 89 1013.6
20260508072401 66 204 0.0 2.0 0.00 1.05 0.00 89 1013.4
20260508072300 66 204 0.0 2.0 0.00 1.05 0.00 89 1013.4
20260508072200 66 204 0.0 2.0 0.00 1.05 0.00 89 1013.4
20260508072101 66 204 0.0 2.0 0.00 1.05 0.00 89 1013.4
20260508072005 66 204 0.0 2.0 0.00 1.05 0.00 89 1013.4
20260508071900 66 204 0.0 2.0 0.00 1.05 0.00 89 1013.4
20260508071800 66 204 0.0 2.0 0.00 1.05 0.00 89 1013.4
20260508071600 66 216 0.0 3.0 0.00 1.05 0.00 89 1013.4
20260508071505 66 213 1.0 3.0 0.00 1.05 0.00 89 1013.4
20260508071400 66 215 0.0 3.0 0.00 1.05 0.00 89 1013.4
20260508071300 66 209 1.0 3.0 0.00 1.05 0.00 88 1013.4
20260508071100 66 236 0.0 3.0 0.00 1.05 0.00 88 1013.5
20260508071004 66 215 0.0 3.0 0.00 1.05 0.00 88 1013.5
20260508070900 66 231 0.0 3.0 0.00 1.05 0.00 88 1013.5
20260508070800 66 255 0.0 3.0 0.00 1.05 0.00 88 1013.5
20260508070701 66 265 2.0 2.0 0.00 1.05 0.00 88 1013.4
20260508070601 66 248 0.0 2.0 0.00 1.05 0.00 88 1013.4
20260508070504 66 220 0.0 2.0 0.00 1.05 0.00 88 1013.4
20260508070300 66 226 0.0 2.0 0.00 1.05 0.00 88 1013.5
20260508070200 66 203 0.0 2.0 0.00 1.05 0.00 88 1013.5
20260508070101 66 213 0.0 2.0 0.00 1.05 0.00 88 1013.5
20260508070006 66 200 0.0 2.0 0.00 1.05 0.00 88 1013.5
20260508065900 66 220 0.0 2.0 0.00 1.05 0.00 88 1013.6
20260508065801 66 229 2.0 2.0 0.00 1.05 0.00 88 1013.6
20260508065701 66 224 0.0 2.0 0.00 1.05 0.00 88 1013.7
20260508065601 66 239 0.0 2.0 0.00 1.05 0.00 88 1013.6
20260508065505 66 239 0.0 2.0 0.00 1.05 0.00 87 1013.6
20260508065400 66 239 0.0 2.0 0.00 1.05 0.00 87 1013.6
20260508065300 66 231 2.0 2.0 0.00 1.05 0.00 87 1013.6
20260508065201 66 222 0.0 2.0 0.00 1.05 0.00 87 1013.6
20260508065100 66 217 0.0 2.0 0.00 1.05 0.00 87 1013.7
20260508065003 67 216 0.0 2.0 0.00 1.05 0.00 87 1013.7
20260508064901 67 225 0.0 2.0 0.00 1.05 0.00 87 1013.6
20260508064800 66 172 0.0 2.0 0.00 1.05 0.00 87 1013.7
20260508064701 67 230 0.0 2.0 0.00 1.05 0.00 87 1013.7
20260508064600 67 230 0.0 2.0 0.00 1.05 0.00 87 1013.6
20260508064400 67 227 0.0 2.0 0.00 1.05 0.00 87 1013.7
20260508064300 67 198 0.0 2.0 0.00 1.05 0.00 87 1013.7
20260508064200 67 226 0.0 2.0 0.00 1.05 0.00 87 1013.7
20260508064101 67 212 0.0 2.0 0.00 1.05 0.00 87 1013.7
20260508064005 67 244 0.0 2.0 0.00 1.05 0.00 87 1013.7
20260508063901 67 244 0.0 2.0 0.00 1.05 0.00 87 1013.9
20260508063759 67 244 0.0 2.0 0.00 1.05 0.00 87 1013.8
20260508063700 67 227 0.0 2.0 0.00 1.05 0.00 87 1013.9
20260508063600 67 227 0.0 2.0 0.00 1.05 0.00 87 1013.9
20260508063504 67 227 0.0 2.0 0.00 1.05 0.00 87 1013.9
20260508063400 67 227 0.0 2.0 0.00 1.05 0.00 87 1013.9
20260508063300 67 221 2.0 2.0 0.00 1.05 0.00 86 1013.9
20260508063100 67 232 0.0 2.0 0.00 1.05 0.00 86 1013.9
20260508062901 67 290 0.0 2.0 0.00 1.05 0.00 86 1013.9
20260508062800 67 291 0.0 2.0 0.00 1.05 0.00 86 1013.9
20260508062700 67 291 0.0 3.0 0.00 1.05 0.00 86 1014.0
20260508062400 67 281 0.0 3.0 0.00 1.05 0.00 86 1014.0
20260508062101 67 235 0.0 3.0 0.00 1.05 0.00 86 1014.1
20260508062005 67 294 1.0 3.0 0.00 1.05 0.00 86 1014.1
20260508061900 67 321 0.0 3.0 0.00 1.05 0.00 86 1014.1
20260508061700 67 275 0.0 3.0 0.00 1.05 0.00 86 1014.1
20260508061600 67 235 0.0 3.0 0.00 1.05 0.00 86 1014.1
20260508061505 67 235 0.0 3.0 0.00 1.05 0.00 86 1014.1
20260508061400 67 219 0.0 3.0 0.00 1.05 0.00 86 1014.2
20260508061300 67 239 0.0 3.0 0.00 1.05 0.00 86 1014.1
20260508061200 68 248 1.0 3.0 0.00 1.05 0.00 86 1014.1
20260508061005 68 240 0.0 3.0 0.00 1.05 0.00 86 1014.1
20260508060800 68 246 0.0 3.0 0.00 1.05 0.00 86 1014.1
20260508060601 68 298 1.0 3.0 0.00 1.05 0.00 86 1014.0
20260508060400 68 319 1.0 2.0 0.00 1.05 0.00 86 1014.1
20260508060201 68 353 2.0 2.0 0.00 1.05 0.00 86 1014.2
20260508060007 68 6 0.0 2.0 0.00 1.05 0.00 86 1014.1
20260508055903 68 239 0.0 2.0 0.00 1.05 0.00 86 1014.2
20260508055803 68 229 0.0 3.0 0.00 1.05 0.00 86 1014.1
20260508055703 68 229 0.0 3.0 0.00 1.05 0.00 86 1014.2
20260508055604 68 213 2.0 3.0 0.00 1.05 0.00 86 1014.2
20260508055505 68 326 0.0 3.0 0.00 1.05 0.00 86 1014.2
20260508055403 68 326 0.0 3.0 0.00 1.05 0.00 86 1014.2
20260508055306 68 155 0.0 3.0 0.00 1.05 0.00 86 1014.1
20260508055103 68 13 0.0 3.0 0.00 1.05 0.00 86 1014.2
20260508055007 68 314 0.0 3.0 0.00 1.05 0.00 86 1014.2
20260508054903 68 246 0.0 2.0 0.00 1.05 0.00 86 1014.3
20260508054703 68 263 0.0 3.0 0.00 1.05 0.00 86 1014.1
20260508054603 68 286 1.0 3.0 0.00 1.05 0.00 86 1014.1
20260508054505 68 316 0.0 3.0 0.00 1.05 0.00 86 1014.3
20260508054403 68 31 0.0 3.0 0.00 1.05 0.00 86 1014.3
20260508054304 68 31 0.0 3.0 0.00 1.05 0.00 86 1014.2
20260508054204 68 31 0.0 3.0 0.00 1.05 0.00 86 1014.2
20260508054104 68 31 0.0 3.0 0.00 1.05 0.00 86 1014.3
20260508054007 68 31 0.0 3.0 0.00 1.05 0.00 86 1014.2
20260508053904 68 24 1.0 3.0 0.00 1.05 0.00 86 1014.2
20260508053802 68 302 2.0 3.0 0.00 1.05 0.00 86 1014.2
20260508053703 68 239 0.0 3.0 0.00 1.05 0.00 86 1014.2
20260508053604 68 275 1.0 3.0 0.00 1.05 0.00 86 1014.2
20260508053505 68 360 0.0 3.0 0.00 1.05 0.00 86 1014.1
20260508053404 68 332 2.0 4.0 0.00 1.05 0.00 86 1014.1
20260508053304 68 360 1.0 4.0 0.00 1.05 0.00 86 1014.1
20260508053203 68 351 1.0 4.0 0.00 1.05 0.00 86 1014.0
20260508053103 68 215 0.0 4.0 0.00 1.05 0.00 86 1014.0
20260508053007 68 300 2.0 4.0 0.00 1.05 0.00 86 1014.0
20260508052903 68 228 0.0 5.0 0.00 1.05 0.00 86 1014.1
20260508052704 68 295 0.0 5.0 0.00 1.05 0.00 86 1014.0
20260508052603 68 224 0.0 5.0 0.00 1.05 0.00 86 1014.0
20260508052505 68 243 3.0 5.0 0.00 1.05 0.00 86 1014.0
20260508052403 68 302 1.0 5.0 0.00 1.05 0.00 86 1013.9
20260508052306 68 290 0.0 5.0 0.00 1.05 0.00 86 1013.9
20260508052203 68 286 0.0 5.0 0.00 1.05 0.00 86 1013.9
20260508052006 68 323 0.0 5.0 0.00 1.05 0.00 86 1013.8
20260508051803 68 314 1.0 5.0 0.00 1.05 0.00 86 1013.9
20260508051703 68 326 0.0 5.0 0.00 1.05 0.00 86 1013.9
20260508051506 68 341 0.0 5.0 0.00 1.05 0.00 86 1014.0
20260508051403 68 6 3.0 5.0 0.00 1.05 0.00 86 1013.9
20260508051303 69 353 2.0 5.0 0.00 1.05 0.00 86 1014.0
20260508051204 69 269 0.0 5.0 0.00 1.05 0.00 86 1014.0
20260508051103 69 349 3.0 5.0 0.00 1.05 0.00 86 1014.0
20260508051006 69 347 0.0 5.0 0.00 1.05 0.00 86 1014.0
20260508050904 69 297 0.0 5.0 0.00 1.05 0.00 86 1013.9
20260508050803 69 319 2.0 5.0 0.00 1.05 0.00 86 1014.0
20260508050704 69 321 1.0 5.0 0.00 1.05 0.00 86 1013.9
20260508050603 69 316 0.0 5.0 0.00 1.05 0.00 86 1014.0
20260508050505 69 309 5.0 5.0 0.00 1.05 0.00 87 1014.0
20260508050403 69 319 1.0 5.0 0.00 1.05 0.00 87 1014.0
20260508050303 69 10 0.0 5.0 0.00 1.05 0.00 87 1014.0
20260508050006 69 333 2.0 6.0 0.00 1.05 1.05 87 1013.9
20260508045903 69 296 0.0 6.0 0.00 1.05 1.05 87 1014.0
20260508045802 69 342 0.0 6.0 0.00 1.05 1.05 87 1014.0
20260508045602 69 304 2.0 6.0 0.00 1.05 1.05 87 1014.1
20260508045505 69 321 1.0 6.0 0.00 1.05 1.05 86 1014.1
20260508045402 69 311 2.0 6.0 0.00 1.05 1.05 86 1014.2
20260508045306 69 12 2.0 6.0 0.00 1.05 1.05 87 1014.2
20260508045203 69 305 1.0 4.0 0.00 1.05 1.05 87 1014.1
20260508045103 69 321 1.0 4.0 0.00 1.05 1.05 87 1014.2
20260508045006 69 317 0.0 4.0 0.00 1.05 1.05 86 1014.2
20260508044803 69 323 0.0 4.0 0.00 1.05 1.05 86 1014.2
20260508044604 69 307 0.0 4.0 0.00 1.05 1.05 86 1014.2
20260508044506 69 345 2.0 4.0 0.00 1.05 1.05 86 1014.2
20260508044402 69 332 0.0 4.0 0.00 1.05 1.05 86 1014.3
20260508044302 69 8 2.0 4.0 0.00 1.05 1.05 86 1014.2
20260508044203 69 317 1.0 6.0 0.00 1.05 1.05 86 1014.3
20260508044102 69 337 0.0 6.0 0.00 1.05 1.05 86 1014.3
20260508043902 69 36 0.0 6.0 0.00 1.05 1.05 86 1014.4
20260508043803 69 319 3.0 6.0 0.00 1.05 1.05 86 1014.5
20260508043702 69 265 2.0 6.0 0.00 1.05 1.05 86 1014.4
20260508043506 69 345 4.0 6.0 0.00 1.05 1.05 86 1014.4
20260508043402 69 316 2.0 6.0 0.00 1.05 1.05 86 1014.4
20260508043303 69 356 3.0 5.0 0.00 1.05 1.05 86 1014.4
20260508043203 69 305 2.0 5.0 0.00 1.05 1.05 86 1014.4
20260508043102 69 6 5.0 5.0 0.00 1.05 1.05 86 1014.4
20260508043006 69 305 3.0 4.0 0.00 1.05 1.05 86 1014.4
20260508042902 69 265 3.0 4.0 0.00 1.05 1.05 86 1014.5
20260508042702 69 298 2.0 4.0 0.00 1.05 1.05 86 1014.4
20260508042603 69 324 0.0 4.0 0.00 1.05 1.05 86 1014.4
20260508042506 69 330 2.0 4.0 0.00 1.05 1.05 86 1014.4
20260508042405 69 307 2.0 4.0 0.00 1.05 1.05 86 1014.4
20260508042306 70 284 0.0 4.0 0.00 1.05 1.05 86 1014.4
20260508042203 69 307 2.0 4.0 0.00 1.05 1.05 86 1014.5
20260508042103 70 314 3.0 3.0 0.00 1.05 1.05 86 1014.5
20260508042005 70 303 2.0 3.0 0.00 1.05 1.05 86 1014.5
20260508041902 70 319 2.0 3.0 0.00 1.05 1.05 86 1014.5
20260508041802 70 321 1.0 3.0 0.00 1.05 1.05 86 1014.3
20260508041702 70 312 0.0 3.0 0.00 1.05 1.05 86 1014.4
20260508041602 70 346 2.0 3.0 0.00 1.05 1.05 86 1014.3
20260508041403 70 319 0.0 3.0 0.00 1.05 1.05 86 1014.3
20260508041303 70 257 0.0 3.0 0.00 1.05 1.05 86 1014.3
20260508041203 70 312 2.0 3.0 0.00 1.05 1.05 86 1014.3
20260508041102 70 319 2.0 4.0 0.00 1.05 1.05 86 1014.3
20260508041005 70 307 0.0 4.0 0.00 1.05 1.05 86 1014.3
20260508040802 70 283 2.0 4.0 0.00 1.05 1.05 86 1014.2
20260508040602 70 312 0.0 4.0 0.00 1.05 1.05 86 1014.3
20260508040506 70 324 1.0 4.0 0.00 1.05 1.05 86 1014.3
20260508040403 70 345 1.0 4.0 0.00 1.05 1.05 86 1014.3
20260508040302 70 323 2.0 4.0 0.00 1.05 1.05 85 1014.3
20260508040202 70 324 3.0 4.0 0.00 1.05 1.05 86 1014.3
20260508040007 70 317 3.0 4.0 0.00 1.05 1.05 85 1014.3
20260508035902 70 314 2.0 4.0 0.00 1.05 1.05 85 1014.3
20260508035803 70 307 0.0 4.0 0.00 1.05 1.05 85 1014.3
20260508035702 70 360 0.0 4.0 0.00 1.05 1.05 85 1014.4
20260508035602 70 314 2.0 4.0 0.00 1.05 1.05 85 1014.3
20260508035403 70 307 3.0 4.0 0.00 1.05 1.05 85 1014.3
20260508035306 70 307 4.0 4.0 0.00 1.05 1.05 85 1014.2
20260508035202 70 295 2.0 4.0 0.00 1.05 1.05 85 1014.3
20260508035102 70 335 4.0 4.0 0.00 1.05 1.05 85 1014.2
20260508035006 70 307 2.0 4.0 0.00 1.05 1.05 86 1014.2
20260508034903 70 316 2.0 4.0 0.00 1.05 1.05 86 1014.2
20260508034802 70 309 2.0 4.0 0.00 1.05 1.05 85 1014.2